Time,TemperatureF,DewpointF,PressureIn,WindDirection,WindDirectionDegrees,WindSpeedMPH,WindSpeedGustMPH,Humidity,HourlyPrecipIn,Conditions,Clouds,dailyrainin,SoftwareType,DateUTC
2013-12-04 00:00:00,0.0,0.0,29.91,West,270,1.1,5.4,0,0.00,,---,0.00,VWS V14.01,2013-12-03 22:00:00,
2013-12-04 00:01:00,0.0,0.0,29.91,West,270,2.9,4.9,0,0.00,,---,0.00,VWS V14.01,2013-12-03 22:01:00,
2013-12-04 00:02:00,0.0,0.0,29.91,WSW,248,1.3,4.3,0,0.00,,---,0.00,VWS V14.01,2013-12-03 22:02:00,
2013-12-04 00:04:00,0.0,0.0,29.91,SW,225,3.4,5.6,0,0.00,,---,0.00,VWS V14.01,2013-12-03 22:04:00,
2013-12-04 00:07:00,0.0,0.0,29.91,WSW,248,1.3,5.6,0,0.00,,---,0.00,VWS V14.01,2013-12-03 22:07:00,
2013-12-04 00:08:00,0.0,0.0,29.91,WSW,248,2.7,6.3,0,0.00,,---,0.00,VWS V14.01,2013-12-03 22:08:00,
2013-12-04 00:10:00,0.0,0.0,29.91,WSW,248,3.6,3.8,0,0.00,,---,0.00,VWS V14.01,2013-12-03 22:10:00,
2013-12-04 00:11:00,0.0,0.0,29.91,WSW,248,1.1,5.8,0,0.00,,---,0.00,VWS V14.01,2013-12-03 22:11:00,
2013-12-04 00:13:00,0.0,0.0,29.91,WNW,292,1.3,2.5,0,0.00,,---,0.00,VWS V14.01,2013-12-03 22:13:00,
2013-12-04 00:14:00,0.0,0.0,29.91,WSW,248,4.3,4.3,0,0.00,,---,0.00,VWS V14.01,2013-12-03 22:14:00,
2013-12-04 00:15:00,0.0,0.0,29.91,WSW,248,3.6,4.7,0,0.00,,---,0.00,VWS V14.01,2013-12-03 22:15:00,
2013-12-04 00:16:00,0.0,0.0,29.91,WSW,248,0.9,3.8,0,0.00,,---,0.00,VWS V14.01,2013-12-03 22:16:00,
2013-12-04 00:20:00,0.0,0.0,29.88,SW,225,3.6,6.3,0,0.00,,---,0.00,VWS V14.01,2013-12-03 22:20:00,
2013-12-04 00:21:00,0.0,0.0,29.88,WSW,248,4.3,4.3,0,0.00,,---,0.00,VWS V14.01,2013-12-03 22:21:00,
2013-12-04 00:22:00,0.0,0.0,29.88,WSW,248,4.0,4.3,0,0.00,,---,0.00,VWS V14.01,2013-12-03 22:22:00,
2013-12-04 00:23:00,0.0,0.0,29.88,WSW,248,4.7,4.7,0,0.00,,---,0.00,VWS V14.01,2013-12-03 22:23:00,
2013-12-04 00:25:00,0.0,0.0,29.88,WSW,248,3.1,7.4,0,0.00,,---,0.00,VWS V14.01,2013-12-03 22:25:00,
2013-12-04 00:26:00,0.0,0.0,29.88,WSW,248,5.6,5.8,0,0.00,,---,0.00,VWS V14.01,2013-12-03 22:26:00,
2013-12-04 00:29:00,0.0,0.0,29.88,WSW,248,4.9,4.9,0,0.00,,---,0.00,VWS V14.01,2013-12-03 22:29:00,
2013-12-04 00:30:00,0.0,0.0,29.88,WSW,248,2.2,6.5,0,0.00,,---,0.00,VWS V14.01,2013-12-03 22:30:00,
2013-12-04 00:33:00,0.0,0.0,29.88,West,270,3.6,7.4,0,0.00,,---,0.00,VWS V14.01,2013-12-03 22:33:00,
2013-12-04 00:35:00,0.0,0.0,29.88,West,270,4.0,4.0,0,0.00,,---,0.00,VWS V14.01,2013-12-03 22:35:00,
2013-12-04 00:37:00,0.0,0.0,29.88,WNW,292,0.9,4.0,0,0.00,,---,0.00,VWS V14.01,2013-12-03 22:37:00,
2013-12-04 00:38:00,0.0,0.0,29.88,WNW,292,2.7,5.4,0,0.00,,---,0.00,VWS V14.01,2013-12-03 22:38:00,
2013-12-04 00:39:00,0.0,0.0,29.88,WNW,292,3.1,3.1,0,0.00,,---,0.00,VWS V14.01,2013-12-03 22:39:00,
2013-12-04 00:40:00,0.0,0.0,29.88,WSW,248,5.6,6.3,0,0.00,,---,0.00,VWS V14.01,2013-12-03 22:40:00,
2013-12-04 00:41:00,0.0,0.0,29.88,WSW,248,0.0,5.6,0,0.00,,---,0.00,VWS V14.01,2013-12-03 22:41:00,
2013-12-04 00:43:00,0.0,0.0,29.88,West,270,2.0,7.4,0,0.00,,---,0.00,VWS V14.01,2013-12-03 22:43:00,
2013-12-04 00:46:00,0.0,0.0,29.88,West,270,5.4,5.6,0,0.00,,---,0.00,VWS V14.01,2013-12-03 22:46:00,
2013-12-04 00:48:00,0.0,0.0,29.88,WNW,292,4.0,4.3,0,0.00,,---,0.00,VWS V14.01,2013-12-03 22:48:00,
2013-12-04 00:49:00,0.0,0.0,29.88,WNW,292,5.4,5.4,0,0.00,,---,0.00,VWS V14.01,2013-12-03 22:49:00,
2013-12-04 00:50:00,0.0,0.0,29.88,SW,225,3.1,5.4,0,0.00,,---,0.00,VWS V14.01,2013-12-03 22:50:00,
2013-12-04 00:52:00,0.0,0.0,29.88,WSW,248,5.4,5.4,0,0.00,,---,0.00,VWS V14.01,2013-12-03 22:52:00,
2013-12-04 00:55:00,0.0,0.0,29.88,WSW,248,5.8,5.8,0,0.00,,---,0.00,VWS V14.01,2013-12-03 22:55:00,
2013-12-04 00:56:00,0.0,0.0,29.88,WNW,292,5.6,6.5,0,0.00,,---,0.00,VWS V14.01,2013-12-03 22:56:00,
2013-12-04 00:58:00,0.0,0.0,29.88,WSW,248,5.8,5.8,0,0.00,,---,0.00,VWS V14.01,2013-12-03 22:58:00,
2013-12-04 00:59:00,0.0,0.0,29.88,West,270,4.0,5.8,0,0.00,,---,0.00,VWS V14.01,2013-12-03 22:59:00,
2013-12-04 01:02:00,0.0,0.0,29.88,WSW,248,4.0,4.9,0,0.00,,---,0.00,VWS V14.01,2013-12-03 23:02:00,
2013-12-04 01:03:00,0.0,0.0,29.88,West,270,3.1,5.8,0,0.00,,---,0.00,VWS V14.01,2013-12-03 23:03:00,
2013-12-04 01:04:00,0.0,0.0,29.88,SW,225,4.7,4.7,0,0.00,,---,0.00,VWS V14.01,2013-12-03 23:04:00,
2013-12-04 01:06:00,0.0,0.0,29.88,WNW,292,4.0,4.0,0,0.00,,---,0.00,VWS V14.01,2013-12-03 23:06:00,
2013-12-04 01:09:00,0.0,0.0,29.88,SW,225,2.5,4.0,0,0.00,,---,0.00,VWS V14.01,2013-12-03 23:09:00,
2013-12-04 01:12:00,0.0,0.0,29.88,WSW,248,2.9,2.9,0,0.00,,---,0.00,VWS V14.01,2013-12-03 23:12:00,
2013-12-04 01:13:00,0.0,0.0,29.88,WNW,292,2.9,3.4,0,0.00,,---,0.00,VWS V14.01,2013-12-03 23:13:00,
2013-12-04 01:16:00,0.0,0.0,29.88,NW,315,2.7,4.9,0,0.00,,---,0.00,VWS V14.01,2013-12-03 23:16:00,
2013-12-04 01:17:00,0.0,0.0,29.88,WSW,248,1.1,3.4,0,0.00,,---,0.00,VWS V14.01,2013-12-03 23:17:00,
2013-12-04 01:18:00,0.0,0.0,29.88,West,270,2.7,3.8,0,0.00,,---,0.00,VWS V14.01,2013-12-03 23:18:00,
2013-12-04 01:19:00,0.0,0.0,29.88,NNW,338,2.9,4.3,0,0.00,,---,0.00,VWS V14.01,2013-12-03 23:19:00,
2013-12-04 01:22:00,0.0,0.0,29.88,West,270,1.3,2.2,0,0.00,,---,0.00,VWS V14.01,2013-12-03 23:22:00,
2013-12-04 01:23:00,0.0,0.0,29.88,WNW,292,4.9,4.9,0,0.00,,---,0.00,VWS V14.01,2013-12-03 23:23:00,
2013-12-04 01:25:00,0.0,0.0,29.88,NW,315,3.8,3.8,0,0.00,,---,0.00,VWS V14.01,2013-12-03 23:25:00,
2013-12-04 01:27:00,0.0,0.0,29.88,WNW,292,3.6,4.3,0,0.00,,---,0.00,VWS V14.01,2013-12-03 23:27:00,
2013-12-04 01:28:00,0.0,0.0,29.88,WNW,292,3.6,5.8,0,0.00,,---,0.00,VWS V14.01,2013-12-03 23:28:00,
2013-12-04 01:29:00,0.0,0.0,29.88,WNW,292,4.0,4.3,0,0.00,,---,0.00,VWS V14.01,2013-12-03 23:29:00,
2013-12-04 01:32:00,0.0,0.0,29.88,WSW,248,4.7,4.7,0,0.00,,---,0.00,VWS V14.01,2013-12-03 23:32:00,
2013-12-04 01:34:00,0.0,0.0,29.88,WNW,292,3.6,5.4,0,0.00,,---,0.00,VWS V14.01,2013-12-03 23:34:00,
2013-12-04 01:35:00,0.0,0.0,29.88,West,270,4.3,4.3,0,0.00,,---,0.00,VWS V14.01,2013-12-03 23:35:00,
2013-12-04 01:37:00,0.0,0.0,29.88,West,270,3.1,3.8,0,0.00,,---,0.00,VWS V14.01,2013-12-03 23:37:00,
2013-12-04 01:38:00,0.0,0.0,29.88,WNW,292,2.9,4.3,0,0.00,,---,0.00,VWS V14.01,2013-12-03 23:38:00,
2013-12-04 01:40:00,0.0,0.0,29.88,WNW,292,3.1,4.3,0,0.00,,---,0.00,VWS V14.01,2013-12-03 23:40:00,
2013-12-04 01:42:00,0.0,0.0,29.88,WNW,292,4.9,4.9,0,0.00,,---,0.00,VWS V14.01,2013-12-03 23:42:00,
2013-12-04 01:43:00,0.0,0.0,29.88,WNW,292,2.7,4.9,0,0.00,,---,0.00,VWS V14.01,2013-12-03 23:43:00,
2013-12-04 01:44:00,0.0,0.0,29.88,WNW,292,4.0,4.0,0,0.00,,---,0.00,VWS V14.01,2013-12-03 23:44:00,
2013-12-04 01:45:00,0.0,0.0,29.88,WNW,292,4.0,5.4,0,0.00,,---,0.00,VWS V14.01,2013-12-03 23:45:00,
2013-12-04 01:50:00,0.0,0.0,29.88,NNW,338,5.6,5.6,0,0.00,,---,0.00,VWS V14.01,2013-12-03 23:50:00,
2013-12-04 01:51:00,0.0,0.0,29.88,WSW,248,3.1,5.6,0,0.00,,---,0.00,VWS V14.01,2013-12-03 23:51:00,
2013-12-04 01:53:00,0.0,0.0,29.88,NNW,338,3.4,3.6,0,0.00,,---,0.00,VWS V14.01,2013-12-03 23:53:00,
2013-12-04 01:55:00,0.0,0.0,29.88,WNW,292,4.0,6.0,0,0.00,,---,0.00,VWS V14.01,2013-12-03 23:55:00,
2013-12-04 01:57:00,0.0,0.0,29.88,WSW,248,3.1,4.3,0,0.00,,---,0.00,VWS V14.01,2013-12-03 23:57:00,
2013-12-04 02:00:00,0.0,0.0,29.88,WNW,292,2.5,4.3,0,0.00,,---,0.00,VWS V14.01,2013-12-04 00:00:00,
2013-12-04 02:02:00,0.0,0.0,29.88,WNW,292,2.9,6.3,0,0.00,,---,0.00,VWS V14.01,2013-12-04 00:02:00,
2013-12-04 02:04:00,0.0,0.0,29.88,WNW,292,4.3,4.3,0,0.00,,---,0.00,VWS V14.01,2013-12-04 00:04:00,
2013-12-04 02:05:00,0.0,0.0,29.88,WNW,292,4.0,4.3,0,0.00,,---,0.00,VWS V14.01,2013-12-04 00:05:00,
2013-12-04 02:07:00,0.0,0.0,29.88,WNW,292,4.9,4.9,0,0.00,,---,0.00,VWS V14.01,2013-12-04 00:07:00,
2013-12-04 02:08:00,0.0,0.0,29.88,WNW,292,5.6,6.0,0,0.00,,---,0.00,VWS V14.01,2013-12-04 00:08:00,
2013-12-04 02:10:00,0.0,0.0,29.88,NNW,338,4.0,5.4,0,0.00,,---,0.00,VWS V14.01,2013-12-04 00:10:00,
2013-12-04 02:11:00,0.0,0.0,29.88,WNW,292,4.7,4.9,0,0.00,,---,0.00,VWS V14.01,2013-12-04 00:11:00,
2013-12-04 02:14:00,0.0,0.0,29.88,NW,315,3.1,4.0,0,0.00,,---,0.00,VWS V14.01,2013-12-04 00:14:00,
2013-12-04 02:15:00,0.0,0.0,29.88,WNW,292,1.3,4.3,0,0.00,,---,0.00,VWS V14.01,2013-12-04 00:15:00,
2013-12-04 02:16:00,0.0,0.0,29.88,WNW,292,3.1,3.8,0,0.00,,---,0.00,VWS V14.01,2013-12-04 00:16:00,
2013-12-04 02:17:00,0.0,0.0,29.88,West,270,1.3,3.1,0,0.00,,---,0.00,VWS V14.01,2013-12-04 00:17:00,
2013-12-04 02:19:00,0.0,0.0,29.88,NNW,338,4.3,4.3,0,0.00,,---,0.00,VWS V14.01,2013-12-04 00:19:00,
2013-12-04 02:23:00,0.0,0.0,29.88,WNW,292,3.1,4.3,0,0.00,,---,0.00,VWS V14.01,2013-12-04 00:23:00,
2013-12-04 02:24:00,0.0,0.0,29.88,WNW,292,4.0,4.7,0,0.00,,---,0.00,VWS V14.01,2013-12-04 00:24:00,
2013-12-04 02:25:00,0.0,0.0,29.88,WNW,292,3.4,4.3,0,0.00,,---,0.00,VWS V14.01,2013-12-04 00:25:00,
2013-12-04 02:27:00,0.0,0.0,29.88,WNW,292,2.2,3.8,0,0.00,,---,0.00,VWS V14.01,2013-12-04 00:27:00,
2013-12-04 02:30:00,0.0,0.0,29.88,WNW,292,3.6,4.9,0,0.00,,---,0.00,VWS V14.01,2013-12-04 00:30:00,
2013-12-04 02:31:00,0.0,0.0,29.88,NNW,338,4.0,4.0,0,0.00,,---,0.00,VWS V14.01,2013-12-04 00:31:00,
2013-12-04 02:32:00,0.0,0.0,29.88,NNW,338,2.5,4.0,0,0.00,,---,0.00,VWS V14.01,2013-12-04 00:32:00,
2013-12-04 02:35:00,0.0,0.0,29.88,WNW,292,3.8,3.8,0,0.00,,---,0.00,VWS V14.01,2013-12-04 00:35:00,
2013-12-04 02:36:00,0.0,0.0,29.88,WNW,292,0.9,3.8,0,0.00,,---,0.00,VWS V14.01,2013-12-04 00:36:00,
2013-12-04 02:37:00,0.0,0.0,29.88,WNW,292,2.0,3.6,0,0.00,,---,0.00,VWS V14.01,2013-12-04 00:37:00,
2013-12-04 02:38:00,0.0,0.0,29.88,WNW,292,3.6,4.9,0,0.00,,---,0.00,VWS V14.01,2013-12-04 00:38:00,
2013-12-04 02:40:00,0.0,0.0,29.88,WNW,292,3.6,3.8,0,0.00,,---,0.00,VWS V14.01,2013-12-04 00:40:00,
2013-12-04 02:42:00,0.0,0.0,29.88,WNW,292,2.9,4.7,0,0.00,,---,0.00,VWS V14.01,2013-12-04 00:42:00,
2013-12-04 02:44:00,0.0,0.0,29.88,WNW,292,4.3,5.4,0,0.00,,---,0.00,VWS V14.01,2013-12-04 00:44:00,
2013-12-04 02:46:00,0.0,0.0,29.88,NW,315,3.8,4.3,0,0.00,,---,0.00,VWS V14.01,2013-12-04 00:46:00,
2013-12-04 02:48:00,0.0,0.0,29.88,WNW,292,3.1,4.3,0,0.00,,---,0.00,VWS V14.01,2013-12-04 00:48:00,
2013-12-04 02:50:00,0.0,0.0,29.88,NNW,338,2.7,5.8,0,0.00,,---,0.00,VWS V14.01,2013-12-04 00:50:00,
2013-12-04 02:51:00,0.0,0.0,29.88,WNW,292,3.4,3.4,0,0.00,,---,0.00,VWS V14.01,2013-12-04 00:51:00,
2013-12-04 02:52:00,0.0,0.0,29.88,WNW,292,1.1,3.6,0,0.00,,---,0.00,VWS V14.01,2013-12-04 00:52:00,
2013-12-04 02:53:00,0.0,0.0,29.88,WNW,292,3.1,3.4,0,0.00,,---,0.00,VWS V14.01,2013-12-04 00:53:00,
2013-12-04 02:55:00,0.0,0.0,29.88,WNW,292,2.7,3.6,0,0.00,,---,0.00,VWS V14.01,2013-12-04 00:55:00,
2013-12-04 03:00:00,0.0,0.0,29.88,North,0,2.5,4.3,0,0.00,,---,0.00,VWS V14.01,2013-12-04 01:00:00,
2013-12-04 03:01:00,0.0,0.0,29.88,WNW,292,4.0,4.0,0,0.00,,---,0.00,VWS V14.01,2013-12-04 01:01:00,
2013-12-04 03:03:00,0.0,0.0,29.88,NNE,22,2.9,3.6,0,0.00,,---,0.00,VWS V14.01,2013-12-04 01:03:00,
2013-12-04 03:05:00,0.0,0.0,29.88,WNW,292,0.9,2.7,0,0.00,,---,0.00,VWS V14.01,2013-12-04 01:05:00,
2013-12-04 03:06:00,0.0,0.0,29.88,WNW,292,3.8,3.8,0,0.00,,---,0.00,VWS V14.01,2013-12-04 01:06:00,
2013-12-04 03:07:00,0.0,0.0,29.88,NNW,338,1.6,3.8,0,0.00,,---,0.00,VWS V14.01,2013-12-04 01:07:00,
2013-12-04 03:08:00,0.0,0.0,29.88,WNW,292,1.1,2.7,0,0.00,,---,0.00,VWS V14.01,2013-12-04 01:08:00,
2013-12-04 03:10:00,0.0,0.0,29.88,NW,315,1.3,3.6,0,0.00,,---,0.00,VWS V14.01,2013-12-04 01:10:00,
2013-12-04 03:12:00,0.0,0.0,29.88,WNW,292,1.3,4.3,0,0.00,,---,0.00,VWS V14.01,2013-12-04 01:12:00,
2013-12-04 03:13:00,0.0,0.0,29.88,NW,315,3.1,3.1,0,0.00,,---,0.00,VWS V14.01,2013-12-04 01:13:00,
2013-12-04 03:14:00,0.0,0.0,29.88,NNW,338,2.5,3.6,0,0.00,,---,0.00,VWS V14.01,2013-12-04 01:14:00,
2013-12-04 03:16:00,0.0,0.0,29.88,NW,315,0.9,3.1,0,0.00,,---,0.00,VWS V14.01,2013-12-04 01:16:00,
2013-12-04 03:20:00,0.0,0.0,29.88,NNW,338,2.7,3.4,0,0.00,,---,0.00,VWS V14.01,2013-12-04 01:20:00,
2013-12-04 03:21:00,0.0,0.0,29.88,NW,315,1.6,2.7,0,0.00,,---,0.00,VWS V14.01,2013-12-04 01:21:00,
2013-12-04 03:22:00,0.0,0.0,29.88,NNW,338,3.8,3.8,0,0.00,,---,0.00,VWS V14.01,2013-12-04 01:22:00,
2013-12-04 03:24:00,0.0,0.0,29.88,NNW,338,1.6,2.5,0,0.00,,---,0.00,VWS V14.01,2013-12-04 01:24:00,
2013-12-04 03:25:00,0.0,0.0,29.88,NW,315,2.0,3.6,0,0.00,,---,0.00,VWS V14.01,2013-12-04 01:25:00,
2013-12-04 03:26:00,0.0,0.0,29.88,WNW,292,0.9,4.0,0,0.00,,---,0.00,VWS V14.01,2013-12-04 01:26:00,
2013-12-04 03:27:00,0.0,0.0,29.88,WNW,292,2.9,3.1,0,0.00,,---,0.00,VWS V14.01,2013-12-04 01:27:00,
2013-12-04 03:28:00,0.0,0.0,29.88,NNW,338,1.3,4.3,0,0.00,,---,0.00,VWS V14.01,2013-12-04 01:28:00,
2013-12-04 03:31:00,0.0,0.0,29.88,NNW,338,2.5,2.5,0,0.00,,---,0.00,VWS V14.01,2013-12-04 01:31:00,
2013-12-04 03:32:00,0.0,0.0,29.88,NNW,338,2.5,3.8,0,0.00,,---,0.00,VWS V14.01,2013-12-04 01:32:00,
2013-12-04 03:33:00,0.0,0.0,29.88,WNW,292,2.9,3.6,0,0.00,,---,0.00,VWS V14.01,2013-12-04 01:33:00,
2013-12-04 03:34:00,0.0,0.0,29.88,NW,315,2.9,2.9,0,0.00,,---,0.00,VWS V14.01,2013-12-04 01:34:00,
2013-12-04 03:36:00,0.0,0.0,29.88,WNW,292,2.2,3.4,0,0.00,,---,0.00,VWS V14.01,2013-12-04 01:36:00,
2013-12-04 03:37:00,0.0,0.0,29.88,WNW,292,2.0,3.6,0,0.00,,---,0.00,VWS V14.01,2013-12-04 01:37:00,
2013-12-04 03:38:00,0.0,0.0,29.88,NW,315,1.1,2.9,0,0.00,,---,0.00,VWS V14.01,2013-12-04 01:38:00,
2013-12-04 03:39:00,0.0,0.0,29.88,NW,315,3.4,3.6,0,0.00,,---,0.00,VWS V14.01,2013-12-04 01:39:00,
2013-12-04 03:40:00,0.0,0.0,29.88,WNW,292,2.2,3.4,0,0.00,,---,0.00,VWS V14.01,2013-12-04 01:40:00,
2013-12-04 03:41:00,0.0,0.0,29.88,WNW,292,3.4,3.4,0,0.00,,---,0.00,VWS V14.01,2013-12-04 01:41:00,
2013-12-04 03:43:00,0.0,0.0,29.88,WNW,292,2.9,3.4,0,0.00,,---,0.00,VWS V14.01,2013-12-04 01:43:00,
2013-12-04 03:46:00,0.0,0.0,29.88,WNW,292,3.4,3.4,0,0.00,,---,0.00,VWS V14.01,2013-12-04 01:46:00,
2013-12-04 03:47:00,0.0,0.0,29.88,WNW,292,2.2,3.4,0,0.00,,---,0.00,VWS V14.01,2013-12-04 01:47:00,
2013-12-04 03:49:00,0.0,0.0,29.88,WNW,292,0.9,2.9,0,0.00,,---,0.00,VWS V14.01,2013-12-04 01:49:00,
2013-12-04 03:51:00,0.0,0.0,29.88,NW,315,1.1,3.1,0,0.00,,---,0.00,VWS V14.01,2013-12-04 01:51:00,
2013-12-04 03:52:00,0.0,0.0,29.88,WNW,292,1.3,2.7,0,0.00,,---,0.00,VWS V14.01,2013-12-04 01:52:00,
2013-12-04 03:53:00,0.0,0.0,29.88,NNW,338,3.8,3.8,0,0.00,,---,0.00,VWS V14.01,2013-12-04 01:53:00,
2013-12-04 03:54:00,0.0,0.0,29.88,WNW,292,2.0,3.8,0,0.00,,---,0.00,VWS V14.01,2013-12-04 01:54:00,
2013-12-04 03:56:00,0.0,0.0,29.88,WNW,292,3.4,3.4,0,0.00,,---,0.00,VWS V14.01,2013-12-04 01:56:00,
2013-12-04 03:57:00,0.0,0.0,29.88,WNW,292,2.5,3.4,0,0.00,,---,0.00,VWS V14.01,2013-12-04 01:57:00,
2013-12-04 04:01:00,0.0,0.0,29.88,NW,315,0.9,3.1,0,0.00,,---,0.00,VWS V14.01,2013-12-04 02:01:00,
2013-12-04 04:02:00,0.0,0.0,29.88,WNW,292,2.7,2.9,0,0.00,,---,0.00,VWS V14.01,2013-12-04 02:02:00,
2013-12-04 04:03:00,0.0,0.0,29.88,WNW,292,2.7,3.4,0,0.00,,---,0.00,VWS V14.01,2013-12-04 02:03:00,
2013-12-04 04:04:00,0.0,0.0,29.88,WNW,292,0.9,2.7,0,0.00,,---,0.00,VWS V14.01,2013-12-04 02:04:00,
2013-12-04 04:06:00,0.0,0.0,29.88,WNW,292,1.1,3.8,0,0.00,,---,0.00,VWS V14.01,2013-12-04 02:06:00,
2013-12-04 04:07:00,0.0,0.0,29.88,NW,315,2.0,3.8,0,0.00,,---,0.00,VWS V14.01,2013-12-04 02:07:00,
2013-12-04 04:08:00,0.0,0.0,29.88,WNW,292,3.8,3.8,0,0.00,,---,0.00,VWS V14.01,2013-12-04 02:08:00,
2013-12-04 04:11:00,0.0,0.0,29.88,WNW,292,1.3,1.3,0,0.00,,---,0.00,VWS V14.01,2013-12-04 02:11:00,
2013-12-04 04:13:00,0.0,0.0,29.88,WNW,292,1.6,3.1,0,0.00,,---,0.00,VWS V14.01,2013-12-04 02:13:00,
2013-12-04 04:15:00,0.0,0.0,29.88,NNW,338,3.1,4.3,0,0.00,,---,0.00,VWS V14.01,2013-12-04 02:15:00,
2013-12-04 04:18:00,0.0,0.0,29.88,WSW,248,0.0,2.7,0,0.00,,---,0.00,VWS V14.01,2013-12-04 02:18:00,
2013-12-04 04:19:00,0.0,0.0,29.88,WNW,292,3.6,3.6,0,0.00,,---,0.00,VWS V14.01,2013-12-04 02:19:00,
2013-12-04 04:21:00,0.0,0.0,29.88,WNW,292,3.1,3.1,0,0.00,,---,0.00,VWS V14.01,2013-12-04 02:21:00,
2013-12-04 04:22:00,0.0,0.0,29.88,WNW,292,2.2,3.1,0,0.00,,---,0.00,VWS V14.01,2013-12-04 02:22:00,
2013-12-04 04:23:00,0.0,0.0,29.88,WNW,292,3.4,3.4,0,0.00,,---,0.00,VWS V14.01,2013-12-04 02:23:00,
2013-12-04 04:25:00,0.0,0.0,29.88,WNW,292,3.6,3.6,0,0.00,,---,0.00,VWS V14.01,2013-12-04 02:25:00,
2013-12-04 04:26:00,0.0,0.0,29.88,WNW,292,4.7,4.7,0,0.00,,---,0.00,VWS V14.01,2013-12-04 02:26:00,
2013-12-04 04:27:00,0.0,0.0,29.88,WNW,292,3.1,4.7,0,0.00,,---,0.00,VWS V14.01,2013-12-04 02:27:00,
2013-12-04 04:31:00,0.0,0.0,29.88,WNW,292,4.3,4.3,0,0.00,,---,0.00,VWS V14.01,2013-12-04 02:31:00,
2013-12-04 04:32:00,0.0,0.0,29.88,WNW,292,3.4,4.3,0,0.00,,---,0.00,VWS V14.01,2013-12-04 02:32:00,
2013-12-04 04:33:00,0.0,0.0,29.88,WNW,292,1.6,4.3,0,0.00,,---,0.00,VWS V14.01,2013-12-04 02:33:00,
2013-12-04 04:34:00,0.0,0.0,29.88,WNW,292,1.6,1.6,0,0.00,,---,0.00,VWS V14.01,2013-12-04 02:34:00,
2013-12-04 04:36:00,0.0,0.0,29.88,WNW,292,3.1,3.6,0,0.00,,---,0.00,VWS V14.01,2013-12-04 02:36:00,
2013-12-04 04:39:00,0.0,0.0,29.88,West,270,3.8,3.8,0,0.00,,---,0.00,VWS V14.01,2013-12-04 02:39:00,
2013-12-04 04:41:00,0.0,0.0,29.88,WNW,292,3.1,3.1,0,0.00,,---,0.00,VWS V14.01,2013-12-04 02:41:00,
2013-12-04 04:43:00,0.0,0.0,29.88,WSW,248,0.9,4.0,0,0.00,,---,0.00,VWS V14.01,2013-12-04 02:43:00,
2013-12-04 04:44:00,0.0,0.0,29.88,WNW,292,4.5,4.5,0,0.00,,---,0.00,VWS V14.01,2013-12-04 02:44:00,
2013-12-04 04:46:00,0.0,0.0,29.88,WNW,292,3.1,4.5,0,0.00,,---,0.00,VWS V14.01,2013-12-04 02:46:00,
2013-12-04 04:48:00,0.0,0.0,29.88,WNW,292,3.8,3.8,0,0.00,,---,0.00,VWS V14.01,2013-12-04 02:48:00,
2013-12-04 04:49:00,0.0,0.0,29.88,WNW,292,3.1,3.8,0,0.00,,---,0.00,VWS V14.01,2013-12-04 02:49:00,
2013-12-04 04:51:00,0.0,0.0,29.88,NW,315,1.1,2.9,0,0.00,,---,0.00,VWS V14.01,2013-12-04 02:51:00,
2013-12-04 04:52:00,0.0,0.0,29.88,NW,315,1.1,1.1,0,0.00,,---,0.00,VWS V14.01,2013-12-04 02:52:00,
2013-12-04 04:53:00,0.0,0.0,29.88,NW,315,1.1,1.1,0,0.00,,---,0.00,VWS V14.01,2013-12-04 02:53:00,
2013-12-04 04:55:00,0.0,0.0,29.88,WNW,292,2.9,4.0,0,0.00,,---,0.00,VWS V14.01,2013-12-04 02:55:00,
2013-12-04 04:57:00,0.0,0.0,29.88,WNW,292,0.9,3.8,0,0.00,,---,0.00,VWS V14.01,2013-12-04 02:57:00,
2013-12-04 05:01:00,0.0,0.0,29.88,NNW,338,1.6,2.9,0,0.00,,---,0.00,VWS V14.01,2013-12-04 03:01:00,
2013-12-04 05:02:00,0.0,0.0,29.88,WNW,292,4.9,4.9,0,0.00,,---,0.00,VWS V14.01,2013-12-04 03:02:00,
2013-12-04 05:03:00,0.0,0.0,29.88,West,270,3.8,4.9,0,0.00,,---,0.00,VWS V14.01,2013-12-04 03:03:00,
2013-12-04 05:04:00,0.0,0.0,29.88,WNW,292,3.4,4.7,0,0.00,,---,0.00,VWS V14.01,2013-12-04 03:04:00,
2013-12-04 05:07:00,0.0,0.0,29.88,WNW,292,4.0,4.3,0,0.00,,---,0.00,VWS V14.01,2013-12-04 03:07:00,
2013-12-04 05:09:00,0.0,0.0,29.88,WNW,292,2.9,4.3,0,0.00,,---,0.00,VWS V14.01,2013-12-04 03:09:00,
2013-12-04 05:12:00,0.0,0.0,29.88,WNW,292,3.8,3.8,0,0.00,,---,0.00,VWS V14.01,2013-12-04 03:12:00,
2013-12-04 05:13:00,0.0,0.0,29.88,WNW,292,1.3,4.0,0,0.00,,---,0.00,VWS V14.01,2013-12-04 03:13:00,
2013-12-04 05:14:00,0.0,0.0,29.88,WNW,292,2.7,2.9,0,0.00,,---,0.00,VWS V14.01,2013-12-04 03:14:00,
2013-12-04 05:17:00,0.0,0.0,29.88,WNW,292,4.3,4.3,0,0.00,,---,0.00,VWS V14.01,2013-12-04 03:17:00,
2013-12-04 05:19:00,0.0,0.0,29.91,WNW,292,4.0,4.9,0,0.00,,---,0.00,VWS V14.01,2013-12-04 03:19:00,
2013-12-04 05:20:00,0.0,0.0,29.91,WNW,292,3.1,5.4,0,0.00,,---,0.00,VWS V14.01,2013-12-04 03:20:00,
2013-12-04 05:23:00,0.0,0.0,29.91,WNW,292,3.4,3.4,0,0.00,,---,0.00,VWS V14.01,2013-12-04 03:23:00,
2013-12-04 05:24:00,0.0,0.0,29.91,NNW,338,4.0,4.0,0,0.00,,---,0.00,VWS V14.01,2013-12-04 03:24:00,
2013-12-04 05:27:00,0.0,0.0,29.91,NNW,338,2.5,5.8,0,0.00,,---,0.00,VWS V14.01,2013-12-04 03:27:00,
2013-12-04 05:29:00,0.0,0.0,29.91,WNW,292,3.4,4.7,0,0.00,,---,0.00,VWS V14.01,2013-12-04 03:29:00,
2013-12-04 05:32:00,0.0,0.0,29.91,WNW,292,3.6,4.0,0,0.00,,---,0.00,VWS V14.01,2013-12-04 03:32:00,
2013-12-04 05:33:00,0.0,0.0,29.91,WNW,292,1.6,3.8,0,0.00,,---,0.00,VWS V14.01,2013-12-04 03:33:00,
2013-12-04 05:34:00,0.0,0.0,29.91,NNW,338,3.6,3.8,0,0.00,,---,0.00,VWS V14.01,2013-12-04 03:34:00,
2013-12-04 05:38:00,0.0,0.0,29.91,WNW,292,3.1,4.3,0,0.00,,---,0.00,VWS V14.01,2013-12-04 03:38:00,
2013-12-04 05:39:00,0.0,0.0,29.91,West,270,4.3,4.3,0,0.00,,---,0.00,VWS V14.01,2013-12-04 03:39:00,
2013-12-04 05:40:00,0.0,0.0,29.91,WNW,292,3.4,4.3,0,0.00,,---,0.00,VWS V14.01,2013-12-04 03:40:00,
2013-12-04 05:43:00,0.0,0.0,29.91,WNW,292,2.5,3.8,0,0.00,,---,0.00,VWS V14.01,2013-12-04 03:43:00,
2013-12-04 05:44:00,0.0,0.0,29.91,WNW,292,4.0,4.0,0,0.00,,---,0.00,VWS V14.01,2013-12-04 03:44:00,
2013-12-04 05:46:00,0.0,0.0,29.91,WNW,292,4.9,4.9,0,0.00,,---,0.00,VWS V14.01,2013-12-04 03:46:00,
2013-12-04 05:47:00,0.0,0.0,29.91,West,270,4.0,4.9,0,0.00,,---,0.00,VWS V14.01,2013-12-04 03:47:00,
2013-12-04 05:52:00,0.0,0.0,29.91,WNW,292,2.9,2.9,0,0.00,,---,0.00,VWS V14.01,2013-12-04 03:52:00,
2013-12-04 05:54:00,0.0,0.0,29.91,NW,315,2.7,3.8,0,0.00,,---,0.00,VWS V14.01,2013-12-04 03:54:00,
2013-12-04 05:55:00,0.0,0.0,29.91,WNW,292,5.6,5.6,0,0.00,,---,0.00,VWS V14.01,2013-12-04 03:55:00,
2013-12-04 05:56:00,0.0,0.0,29.91,NW,315,3.4,5.6,0,0.00,,---,0.00,VWS V14.01,2013-12-04 03:56:00,
2013-12-04 05:58:00,0.0,0.0,29.91,West,270,3.4,4.5,0,0.00,,---,0.00,VWS V14.01,2013-12-04 03:58:00,
2013-12-04 05:59:00,0.0,0.0,29.91,WNW,292,2.0,4.3,0,0.00,,---,0.00,VWS V14.01,2013-12-04 03:59:00,
2013-12-04 06:00:00,0.0,0.0,29.91,NNW,338,2.5,4.9,0,0.00,,---,0.00,VWS V14.01,2013-12-04 04:00:00,
2013-12-04 06:03:00,0.0,0.0,29.91,WNW,292,1.1,4.3,0,0.00,,---,0.00,VWS V14.01,2013-12-04 04:03:00,
2013-12-04 06:04:00,0.0,0.0,29.91,West,270,1.1,3.8,0,0.00,,---,0.00,VWS V14.01,2013-12-04 04:04:00,
2013-12-04 06:05:00,0.0,0.0,29.91,WNW,292,4.0,4.0,0,0.00,,---,0.00,VWS V14.01,2013-12-04 04:05:00,
2013-12-04 06:09:00,0.0,0.0,29.91,WNW,292,2.2,4.0,0,0.00,,---,0.00,VWS V14.01,2013-12-04 04:09:00,
2013-12-04 06:10:00,0.0,0.0,29.91,WNW,292,0.0,3.4,0,0.00,,---,0.00,VWS V14.01,2013-12-04 04:10:00,
2013-12-04 06:12:00,0.0,0.0,29.91,WNW,292,0.0,0.0,0,0.00,,---,0.00,VWS V14.01,2013-12-04 04:12:00,
2013-12-04 06:16:00,0.0,0.0,29.91,WNW,292,0.0,0.0,0,0.00,,---,0.00,VWS V14.01,2013-12-04 04:16:00,
2013-12-04 06:17:00,0.0,0.0,29.91,West,270,0.0,0.0,0,0.00,,---,0.00,VWS V14.01,2013-12-04 04:17:00,
2013-12-04 06:18:00,0.0,0.0,29.91,WNW,292,0.0,0.0,0,0.00,,---,0.00,VWS V14.01,2013-12-04 04:18:00,
2013-12-04 06:22:00,0.0,0.0,29.91,WNW,292,0.0,0.0,0,0.00,,---,0.00,VWS V14.01,2013-12-04 04:22:00,
2013-12-04 06:23:00,0.0,0.0,29.91,WNW,292,0.0,0.0,0,0.00,,---,0.00,VWS V14.01,2013-12-04 04:23:00,
2013-12-04 06:24:00,0.0,0.0,29.91,WNW,292,0.0,0.0,0,0.00,,---,0.00,VWS V14.01,2013-12-04 04:24:00,
2013-12-04 06:25:00,0.0,0.0,29.91,WNW,292,0.0,0.0,0,0.00,,---,0.00,VWS V14.01,2013-12-04 04:25:00,
2013-12-04 06:27:00,0.0,0.0,29.91,WNW,292,5.4,5.4,0,0.00,,---,0.00,VWS V14.01,2013-12-04 04:27:00,
2013-12-04 06:28:00,0.0,0.0,29.91,WNW,292,6.3,6.3,0,0.00,,---,0.00,VWS V14.01,2013-12-04 04:28:00,
2013-12-04 06:29:00,0.0,0.0,29.91,WNW,292,4.3,6.3,0,0.00,,---,0.00,VWS V14.01,2013-12-04 04:29:00,
2013-12-04 06:31:00,0.0,0.0,29.91,WNW,292,2.5,4.3,0,0.00,,---,0.00,VWS V14.01,2013-12-04 04:31:00,
2013-12-04 06:34:00,0.0,0.0,29.91,NW,315,3.8,3.8,0,0.00,,---,0.00,VWS V14.01,2013-12-04 04:34:00,
2013-12-04 06:35:00,0.0,0.0,29.91,NNW,338,6.5,6.5,0,0.00,,---,0.00,VWS V14.01,2013-12-04 04:35:00,
2013-12-04 06:36:00,0.0,0.0,29.91,WNW,292,2.7,6.5,0,0.00,,---,0.00,VWS V14.01,2013-12-04 04:36:00,
2013-12-04 06:40:00,0.0,0.0,29.91,WNW,292,4.7,4.9,0,0.00,,---,0.00,VWS V14.01,2013-12-04 04:40:00,
2013-12-04 06:41:00,0.0,0.0,29.91,WNW,292,3.4,5.8,0,0.00,,---,0.00,VWS V14.01,2013-12-04 04:41:00,
2013-12-04 06:42:00,0.0,0.0,29.91,WNW,292,4.0,4.9,0,0.00,,---,0.00,VWS V14.01,2013-12-04 04:42:00,
2013-12-04 06:46:00,0.0,0.0,29.91,WNW,292,4.9,5.6,0,0.00,,---,0.00,VWS V14.01,2013-12-04 04:46:00,
2013-12-04 06:48:00,0.0,0.0,29.91,WNW,292,3.8,4.9,0,0.00,,---,0.00,VWS V14.01,2013-12-04 04:48:00,
2013-12-04 06:49:00,0.0,0.0,29.91,SW,225,3.8,6.5,0,0.00,,---,0.00,VWS V14.01,2013-12-04 04:49:00,
2013-12-04 06:50:00,0.0,0.0,29.91,WNW,292,4.3,5.8,0,0.00,,---,0.00,VWS V14.01,2013-12-04 04:50:00,
2013-12-04 06:53:00,0.0,0.0,29.91,NNW,338,4.0,4.0,0,0.00,,---,0.00,VWS V14.01,2013-12-04 04:53:00,
2013-12-04 06:55:00,0.0,0.0,29.91,WNW,292,5.8,7.8,0,0.00,,---,0.00,VWS V14.01,2013-12-04 04:55:00,
2013-12-04 06:59:00,0.0,0.0,29.91,WNW,292,3.8,5.6,0,0.00,,---,0.00,VWS V14.01,2013-12-04 04:59:00,
2013-12-04 07:00:00,0.0,0.0,29.91,WNW,292,1.1,6.0,0,0.00,,---,0.00,VWS V14.01,2013-12-04 05:00:00,
2013-12-04 07:01:00,0.0,0.0,29.91,WNW,292,5.4,6.3,0,0.00,,---,0.00,VWS V14.01,2013-12-04 05:01:00,
2013-12-04 07:02:00,0.0,0.0,29.91,WNW,292,5.4,5.6,0,0.00,,---,0.00,VWS V14.01,2013-12-04 05:02:00,
2013-12-04 07:04:00,0.0,0.0,29.94,WNW,292,3.6,7.2,0,0.00,,---,0.00,VWS V14.01,2013-12-04 05:04:00,
2013-12-04 07:05:00,0.0,0.0,29.94,NNE,22,4.7,6.3,0,0.00,,---,0.00,VWS V14.01,2013-12-04 05:05:00,
2013-12-04 07:08:00,0.0,0.0,29.94,WNW,292,3.6,6.5,0,0.00,,---,0.00,VWS V14.01,2013-12-04 05:08:00,
2013-12-04 07:09:00,0.0,0.0,29.94,WNW,292,2.9,3.6,0,0.00,,---,0.00,VWS V14.01,2013-12-04 05:09:00,
2013-12-04 07:11:00,0.0,0.0,29.94,WNW,292,6.5,6.5,0,0.00,,---,0.00,VWS V14.01,2013-12-04 05:11:00,
2013-12-04 07:14:00,0.0,0.0,29.94,NW,315,6.3,6.5,0,0.00,,---,0.00,VWS V14.01,2013-12-04 05:14:00,
2013-12-04 07:17:00,0.0,0.0,29.94,NNW,338,5.6,5.6,0,0.00,,---,0.00,VWS V14.01,2013-12-04 05:17:00,
2013-12-04 07:19:00,0.0,0.0,29.94,West,270,2.5,3.8,0,0.00,,---,0.00,VWS V14.01,2013-12-04 05:19:00,
2013-12-04 07:21:00,0.0,0.0,29.94,WNW,292,4.3,4.3,0,0.00,,---,0.00,VWS V14.01,2013-12-04 05:21:00,
2013-12-04 07:23:00,0.0,0.0,29.94,West,270,4.3,6.5,0,0.00,,---,0.00,VWS V14.01,2013-12-04 05:23:00,
2013-12-04 07:24:00,0.0,0.0,29.94,WNW,292,4.9,4.9,0,0.00,,---,0.00,VWS V14.01,2013-12-04 05:24:00,
2013-12-04 07:27:00,0.0,0.0,29.94,WNW,292,4.9,7.2,0,0.00,,---,0.00,VWS V14.01,2013-12-04 05:27:00,
2013-12-04 07:29:00,0.0,0.0,29.94,NW,315,2.0,2.7,0,0.00,,---,0.00,VWS V14.01,2013-12-04 05:29:00,
2013-12-04 07:30:00,0.0,0.0,29.94,WNW,292,4.3,4.9,0,0.00,,---,0.00,VWS V14.01,2013-12-04 05:30:00,
2013-12-04 07:34:00,0.0,0.0,29.94,WNW,292,4.9,6.0,0,0.00,,---,0.00,VWS V14.01,2013-12-04 05:34:00,
2013-12-04 07:35:00,0.0,0.0,29.94,WNW,292,6.0,7.2,0,0.00,,---,0.00,VWS V14.01,2013-12-04 05:35:00,
2013-12-04 07:37:00,0.0,0.0,29.94,West,270,5.6,5.8,0,0.00,,---,0.00,VWS V14.01,2013-12-04 05:37:00,
2013-12-04 07:38:00,0.0,0.0,29.94,NW,315,5.8,5.8,0,0.00,,---,0.00,VWS V14.01,2013-12-04 05:38:00,
2013-12-04 07:42:00,0.0,0.0,29.94,NW,315,3.6,4.0,0,0.00,,---,0.00,VWS V14.01,2013-12-04 05:42:00,
2013-12-04 07:43:00,0.0,0.0,29.94,WNW,292,4.0,4.0,0,0.00,,---,0.00,VWS V14.01,2013-12-04 05:43:00,
2013-12-04 07:45:00,0.0,0.0,29.94,NW,315,4.3,4.3,0,0.00,,---,0.00,VWS V14.01,2013-12-04 05:45:00,
2013-12-04 07:46:00,0.0,0.0,29.94,WSW,248,2.0,4.3,0,0.00,,---,0.00,VWS V14.01,2013-12-04 05:46:00,
2013-12-04 07:47:00,0.0,0.0,29.94,WSW,248,2.5,4.0,0,0.00,,---,0.00,VWS V14.01,2013-12-04 05:47:00,
2013-12-04 07:51:00,0.0,0.0,29.94,WNW,292,2.0,6.5,0,0.00,,---,0.00,VWS V14.01,2013-12-04 05:51:00,
2013-12-04 07:52:00,0.0,0.0,29.94,West,270,3.1,7.2,0,0.00,,---,0.00,VWS V14.01,2013-12-04 05:52:00,
2013-12-04 07:53:00,0.0,0.0,29.94,West,270,3.6,5.8,0,0.00,,---,0.00,VWS V14.01,2013-12-04 05:53:00,
2013-12-04 07:54:00,0.0,0.0,29.94,NNW,338,1.1,4.0,0,0.00,,---,0.00,VWS V14.01,2013-12-04 05:54:00,
2013-12-04 07:56:00,0.0,0.0,29.94,WNW,292,2.9,4.9,0,0.00,,---,0.00,VWS V14.01,2013-12-04 05:56:00,
2013-12-04 07:57:00,0.0,0.0,29.94,WNW,292,3.6,3.8,0,0.00,,---,0.00,VWS V14.01,2013-12-04 05:57:00,
2013-12-04 07:58:00,0.0,0.0,29.94,NW,315,3.6,4.9,0,0.00,,---,0.00,VWS V14.01,2013-12-04 05:58:00,
2013-12-04 07:59:00,0.0,0.0,29.94,WNW,292,3.4,4.0,0,0.00,,---,0.00,VWS V14.01,2013-12-04 05:59:00,
2013-12-04 08:02:00,0.0,0.0,29.94,WNW,292,2.0,4.7,0,0.00,,---,0.00,VWS V14.01,2013-12-04 06:02:00,
2013-12-04 08:03:00,0.0,0.0,29.94,NW,315,4.3,4.9,0,0.00,,---,0.00,VWS V14.01,2013-12-04 06:03:00,
2013-12-04 08:04:00,0.0,0.0,29.94,SSW,202,2.0,6.0,0,0.00,,---,0.00,VWS V14.01,2013-12-04 06:04:00,
2013-12-04 08:05:00,0.0,0.0,29.94,WNW,292,3.1,3.1,0,0.00,,---,0.00,VWS V14.01,2013-12-04 06:05:00,
2013-12-04 08:06:00,0.0,0.0,29.94,WNW,292,1.3,4.3,0,0.00,,---,0.00,VWS V14.01,2013-12-04 06:06:00,
2013-12-04 08:09:00,0.0,0.0,29.94,WNW,292,5.4,5.4,0,0.00,,---,0.00,VWS V14.01,2013-12-04 06:09:00,
2013-12-04 08:13:00,0.0,0.0,29.94,West,270,0.0,0.0,0,0.00,,---,0.00,VWS V14.01,2013-12-04 06:13:00,
2013-12-04 08:17:00,0.0,0.0,29.94,NNE,22,0.0,0.0,0,0.00,,---,0.00,VWS V14.01,2013-12-04 06:17:00,
2013-12-04 08:18:00,0.0,0.0,29.94,NW,315,0.0,0.0,0,0.00,,---,0.00,VWS V14.01,2013-12-04 06:18:00,
2013-12-04 08:19:00,0.0,0.0,29.94,WNW,292,0.0,0.0,0,0.00,,---,0.00,VWS V14.01,2013-12-04 06:19:00,
2013-12-04 08:20:00,0.0,0.0,29.94,WNW,292,0.0,0.0,0,0.00,,---,0.00,VWS V14.01,2013-12-04 06:20:00,
2013-12-04 08:21:00,0.0,0.0,29.94,WNW,292,0.0,0.0,0,0.00,,---,0.00,VWS V14.01,2013-12-04 06:21:00,
2013-12-04 08:25:00,0.0,0.0,29.94,WNW,292,5.8,5.8,0,0.00,,---,0.00,VWS V14.01,2013-12-04 06:25:00,
2013-12-04 08:30:00,0.0,0.0,29.94,WNW,292,2.0,7.2,0,0.00,,---,0.00,VWS V14.01,2013-12-04 06:30:00,
2013-12-04 08:32:00,0.0,0.0,29.94,WNW,292,7.4,7.4,0,0.00,,---,0.00,VWS V14.01,2013-12-04 06:32:00,
2013-12-04 08:33:00,0.0,0.0,29.94,NW,315,3.4,7.4,0,0.00,,---,0.00,VWS V14.01,2013-12-04 06:33:00,
2013-12-04 08:34:00,0.0,0.0,29.94,WNW,292,4.0,7.4,0,0.00,,---,0.00,VWS V14.01,2013-12-04 06:34:00,
2013-12-04 08:37:00,0.0,0.0,29.94,WSW,248,5.4,5.4,0,0.00,,---,0.00,VWS V14.01,2013-12-04 06:37:00,
2013-12-04 08:38:00,0.0,0.0,29.94,WNW,292,4.9,5.4,0,0.00,,---,0.00,VWS V14.01,2013-12-04 06:38:00,
2013-12-04 08:39:00,0.0,0.0,29.94,NNW,338,3.6,4.9,0,0.00,,---,0.00,VWS V14.01,2013-12-04 06:39:00,
2013-12-04 08:40:00,0.0,0.0,29.94,NW,315,5.8,5.8,0,0.00,,---,0.00,VWS V14.01,2013-12-04 06:40:00,
2013-12-04 08:41:00,0.0,0.0,29.94,NNW,338,2.9,5.8,0,0.00,,---,0.00,VWS V14.01,2013-12-04 06:41:00,
2013-12-04 08:44:00,0.0,0.0,29.94,WNW,292,2.9,7.8,0,0.00,,---,0.00,VWS V14.01,2013-12-04 06:44:00,
2013-12-04 08:45:00,0.0,0.0,29.94,WNW,292,3.1,8.7,0,0.00,,---,0.00,VWS V14.01,2013-12-04 06:45:00,
2013-12-04 08:48:00,0.0,0.0,29.94,WNW,292,5.6,5.6,0,0.00,,---,0.00,VWS V14.01,2013-12-04 06:48:00,
2013-12-04 08:49:00,0.0,0.0,29.94,WNW,292,4.7,5.8,0,0.00,,---,0.00,VWS V14.01,2013-12-04 06:49:00,
2013-12-04 08:50:00,0.0,0.0,29.94,West,270,0.9,4.7,0,0.00,,---,0.00,VWS V14.01,2013-12-04 06:50:00,
2013-12-04 08:51:00,0.0,0.0,29.94,WNW,292,2.9,3.8,0,0.00,,---,0.00,VWS V14.01,2013-12-04 06:51:00,
2013-12-04 08:52:00,0.0,0.0,29.94,WNW,292,3.8,3.8,0,0.00,,---,0.00,VWS V14.01,2013-12-04 06:52:00,
2013-12-04 08:53:00,0.0,0.0,29.94,WNW,292,3.1,6.3,0,0.00,,---,0.00,VWS V14.01,2013-12-04 06:53:00,
2013-12-04 08:56:00,0.0,0.0,29.94,WNW,292,4.7,5.6,0,0.00,,---,0.00,VWS V14.01,2013-12-04 06:56:00,
2013-12-04 08:57:00,0.0,0.0,29.94,WNW,292,5.8,6.0,0,0.00,,---,0.00,VWS V14.01,2013-12-04 06:57:00,
2013-12-04 09:00:00,0.0,0.0,29.94,WNW,292,2.9,5.6,0,0.00,,---,0.00,VWS V14.01,2013-12-04 07:00:00,
2013-12-04 09:03:00,0.0,0.0,29.94,WNW,292,4.9,5.8,0,0.00,,---,0.00,VWS V14.01,2013-12-04 07:03:00,
2013-12-04 09:04:00,0.0,0.0,29.94,WNW,292,3.8,6.0,0,0.00,,---,0.00,VWS V14.01,2013-12-04 07:04:00,
2013-12-04 09:05:00,0.0,0.0,29.94,WNW,292,2.2,3.8,0,0.00,,---,0.00,VWS V14.01,2013-12-04 07:05:00,
2013-12-04 09:09:00,0.0,0.0,29.94,WNW,292,2.0,3.6,0,0.00,,---,0.00,VWS V14.01,2013-12-04 07:09:00,
2013-12-04 09:10:00,0.0,0.0,29.94,WNW,292,4.0,4.0,0,0.00,,---,0.00,VWS V14.01,2013-12-04 07:10:00,
2013-12-04 09:12:00,0.0,0.0,29.94,WNW,292,5.8,5.8,0,0.00,,---,0.00,VWS V14.01,2013-12-04 07:12:00,
2013-12-04 09:16:00,0.0,0.0,29.94,WSW,248,1.1,5.8,0,0.00,,---,0.00,VWS V14.01,2013-12-04 07:16:00,
2013-12-04 09:18:00,0.0,0.0,29.94,WSW,248,3.4,3.4,0,0.00,,---,0.00,VWS V14.01,2013-12-04 07:18:00,
2013-12-04 09:19:00,0.0,0.0,29.94,WSW,248,4.9,4.9,0,0.00,,---,0.00,VWS V14.01,2013-12-04 07:19:00,
2013-12-04 09:22:00,0.0,0.0,29.94,West,270,4.0,5.4,0,0.00,,---,0.00,VWS V14.01,2013-12-04 07:22:00,
2013-12-04 09:23:00,0.0,0.0,29.94,WNW,292,2.7,4.0,0,0.00,,---,0.00,VWS V14.01,2013-12-04 07:23:00,
2013-12-04 09:24:00,0.0,0.0,29.94,WSW,248,3.1,4.7,0,0.00,,---,0.00,VWS V14.01,2013-12-04 07:24:00,
2013-12-04 09:27:00,0.0,0.0,29.94,WSW,248,3.8,4.9,0,0.00,,---,0.00,VWS V14.01,2013-12-04 07:27:00,
2013-12-04 09:29:00,0.0,0.0,29.94,NW,315,2.5,6.0,0,0.00,,---,0.00,VWS V14.01,2013-12-04 07:29:00,
2013-12-04 09:31:00,0.0,0.0,29.94,WSW,248,2.5,4.0,0,0.00,,---,0.00,VWS V14.01,2013-12-04 07:31:00,
2013-12-04 09:32:00,0.0,0.0,29.94,SSW,202,5.8,5.8,0,0.00,,---,0.00,VWS V14.01,2013-12-04 07:32:00,
2013-12-04 09:33:00,0.0,0.0,29.94,WSW,248,4.3,5.8,0,0.00,,---,0.00,VWS V14.01,2013-12-04 07:33:00,
2013-12-04 09:34:00,0.0,0.0,29.94,NNW,338,2.5,4.3,0,0.00,,---,0.00,VWS V14.01,2013-12-04 07:34:00,
2013-12-04 09:36:00,0.0,0.0,29.94,WSW,248,3.1,3.1,0,0.00,,---,0.00,VWS V14.01,2013-12-04 07:36:00,
2013-12-04 09:37:00,0.0,0.0,29.94,WSW,248,2.0,3.1,0,0.00,,---,0.00,VWS V14.01,2013-12-04 07:37:00,
2013-12-04 09:38:00,0.0,0.0,29.94,WNW,292,2.5,4.9,0,0.00,,---,0.00,VWS V14.01,2013-12-04 07:38:00,
2013-12-04 09:40:00,0.0,0.0,29.94,WSW,248,3.6,4.7,0,0.00,,---,0.00,VWS V14.01,2013-12-04 07:40:00,
2013-12-04 09:42:00,0.0,0.0,29.94,WNW,292,3.8,3.8,0,0.00,,---,0.00,VWS V14.01,2013-12-04 07:42:00,
2013-12-04 09:44:00,0.0,0.0,29.94,West,270,1.6,3.6,0,0.00,,---,0.00,VWS V14.01,2013-12-04 07:44:00,
2013-12-04 09:45:00,0.0,0.0,29.94,WNW,292,1.1,5.4,0,0.00,,---,0.00,VWS V14.01,2013-12-04 07:45:00,
2013-12-04 09:49:00,0.0,0.0,29.94,WSW,248,2.5,4.3,0,0.00,,---,0.00,VWS V14.01,2013-12-04 07:49:00,
2013-12-04 09:52:00,0.0,0.0,29.94,WNW,292,5.8,5.8,0,0.00,,---,0.00,VWS V14.01,2013-12-04 07:52:00,
2013-12-04 09:54:00,0.0,0.0,29.94,WSW,248,4.3,4.3,0,0.00,,---,0.00,VWS V14.01,2013-12-04 07:54:00,
2013-12-04 09:55:00,0.0,0.0,29.94,WSW,248,3.8,4.3,0,0.00,,---,0.00,VWS V14.01,2013-12-04 07:55:00,
2013-12-04 09:57:00,0.0,0.0,29.94,SSW,202,2.7,4.3,0,0.00,,---,0.00,VWS V14.01,2013-12-04 07:57:00,
2013-12-04 09:59:00,0.0,0.0,29.94,West,270,2.9,4.7,0,0.00,,---,0.00,VWS V14.01,2013-12-04 07:59:00,
2013-12-04 10:02:00,0.0,0.0,29.94,WSW,248,1.6,3.4,0,0.00,,---,0.00,VWS V14.01,2013-12-04 08:02:00,
2013-12-04 10:04:00,0.0,0.0,29.94,SW,225,3.1,3.8,0,0.00,,---,0.00,VWS V14.01,2013-12-04 08:04:00,
2013-12-04 10:06:00,0.0,0.0,29.94,WNW,292,7.4,7.4,0,0.00,,---,0.00,VWS V14.01,2013-12-04 08:06:00,
2013-12-04 10:09:00,0.0,0.0,29.94,WSW,248,2.7,2.9,0,0.00,,---,0.00,VWS V14.01,2013-12-04 08:09:00,
2013-12-04 10:10:00,0.0,0.0,29.94,WSW,248,0.9,3.6,0,0.00,,---,0.00,VWS V14.01,2013-12-04 08:10:00,
2013-12-04 10:11:00,0.0,0.0,29.94,WSW,248,3.8,4.5,0,0.00,,---,0.00,VWS V14.01,2013-12-04 08:11:00,
2013-12-04 10:15:00,0.0,0.0,29.94,WSW,248,0.0,0.0,0,0.00,,---,0.00,VWS V14.01,2013-12-04 08:15:00,
2013-12-04 10:16:00,0.0,0.0,29.94,WSW,248,0.0,0.0,0,0.00,,---,0.00,VWS V14.01,2013-12-04 08:16:00,
2013-12-04 10:18:00,0.0,0.0,29.94,WNW,292,2.5,2.5,0,0.00,,---,0.00,VWS V14.01,2013-12-04 08:18:00,
2013-12-04 10:20:00,0.0,0.0,29.94,WSW,248,4.3,5.6,0,0.00,,---,0.00,VWS V14.01,2013-12-04 08:20:00,
2013-12-04 10:22:00,0.0,0.0,29.94,WSW,248,4.7,4.7,0,0.00,,---,0.00,VWS V14.01,2013-12-04 08:22:00,
2013-12-04 10:23:00,0.0,0.0,29.94,NW,315,2.9,4.7,0,0.00,,---,0.00,VWS V14.01,2013-12-04 08:23:00,
2013-12-04 10:24:00,0.0,0.0,29.94,WNW,292,0.9,4.0,0,0.00,,---,0.00,VWS V14.01,2013-12-04 08:24:00,
2013-12-04 10:25:00,0.0,0.0,29.94,WSW,248,2.0,3.8,0,0.00,,---,0.00,VWS V14.01,2013-12-04 08:25:00,
2013-12-04 10:26:00,0.0,0.0,29.94,WSW,248,3.8,3.8,0,0.00,,---,0.00,VWS V14.01,2013-12-04 08:26:00,
2013-12-04 10:28:00,0.0,0.0,29.94,WSW,248,2.5,5.6,0,0.00,,---,0.00,VWS V14.01,2013-12-04 08:28:00,
2013-12-04 10:30:00,0.0,0.0,29.94,WNW,292,2.5,5.4,0,0.00,,---,0.00,VWS V14.01,2013-12-04 08:30:00,
2013-12-04 10:33:00,0.0,0.0,29.94,WSW,248,4.3,4.3,0,0.00,,---,0.00,VWS V14.01,2013-12-04 08:33:00,
2013-12-04 10:37:00,0.0,0.0,29.94,WSW,248,0.9,4.3,0,0.00,,---,0.00,VWS V14.01,2013-12-04 08:37:00,
2013-12-04 10:39:00,0.0,0.0,29.94,WNW,292,4.0,4.0,0,0.00,,---,0.00,VWS V14.01,2013-12-04 08:39:00,
2013-12-04 10:40:00,0.0,0.0,29.94,West,270,4.0,4.0,0,0.00,,---,0.00,VWS V14.01,2013-12-04 08:40:00,
2013-12-04 10:44:00,0.0,0.0,29.94,West,270,2.7,6.3,0,0.00,,---,0.00,VWS V14.01,2013-12-04 08:44:00,
2013-12-04 10:45:00,0.0,0.0,29.94,WSW,248,3.1,4.9,0,0.00,,---,0.00,VWS V14.01,2013-12-04 08:45:00,
2013-12-04 10:46:00,0.0,0.0,29.94,SSW,202,2.0,3.1,0,0.00,,---,0.00,VWS V14.01,2013-12-04 08:46:00,
2013-12-04 10:47:00,0.0,0.0,29.94,WSW,248,2.2,2.9,0,0.00,,---,0.00,VWS V14.01,2013-12-04 08:47:00,
2013-12-04 10:48:00,0.0,0.0,29.94,WSW,248,1.1,2.2,0,0.00,,---,0.00,VWS V14.01,2013-12-04 08:48:00,
2013-12-04 10:52:00,0.0,0.0,29.94,WSW,248,2.2,4.0,0,0.00,,---,0.00,VWS V14.01,2013-12-04 08:52:00,
2013-12-04 10:54:00,0.0,0.0,29.94,WSW,248,2.9,2.9,0,0.00,,---,0.00,VWS V14.01,2013-12-04 08:54:00,
2013-12-04 10:59:00,0.0,0.0,29.94,SSW,202,2.0,2.2,0,0.00,,---,0.00,VWS V14.01,2013-12-04 08:59:00,
2013-12-04 11:01:00,0.0,0.0,29.94,WSW,248,0.9,2.5,0,0.00,,---,0.00,VWS V14.01,2013-12-04 09:01:00,
2013-12-04 11:02:00,0.0,0.0,29.94,South,180,0.0,2.0,0,0.00,,---,0.00,VWS V14.01,2013-12-04 09:02:00,
2013-12-04 11:03:00,0.0,0.0,29.97,SSW,202,2.5,2.5,0,0.00,,---,0.00,VWS V14.01,2013-12-04 09:03:00,
2013-12-04 11:05:00,0.0,0.0,29.97,West,270,2.2,3.1,0,0.00,,---,0.00,VWS V14.01,2013-12-04 09:05:00,
2013-12-04 11:06:00,0.0,0.0,29.97,WSW,248,2.5,2.5,0,0.00,,---,0.00,VWS V14.01,2013-12-04 09:06:00,
2013-12-04 11:07:00,0.0,0.0,29.97,WSW,248,0.0,2.7,0,0.00,,---,0.00,VWS V14.01,2013-12-04 09:07:00,
2013-12-04 11:09:00,0.0,0.0,29.97,WSW,248,2.5,2.5,0,0.00,,---,0.00,VWS V14.01,2013-12-04 09:09:00,
2013-12-04 11:11:00,0.0,0.0,29.97,WSW,248,2.9,4.7,0,0.00,,---,0.00,VWS V14.01,2013-12-04 09:11:00,
2013-12-04 11:14:00,0.0,0.0,29.97,SW,225,3.4,4.9,0,0.00,,---,0.00,VWS V14.01,2013-12-04 09:14:00,
2013-12-04 11:15:00,0.0,0.0,29.97,WSW,248,4.0,4.0,0,0.00,,---,0.00,VWS V14.01,2013-12-04 09:15:00,
2013-12-04 11:16:00,0.0,0.0,29.97,WSW,248,2.0,4.7,0,0.00,,---,0.00,VWS V14.01,2013-12-04 09:16:00,
2013-12-04 11:17:00,0.0,0.0,29.97,West,270,1.6,3.8,0,0.00,,---,0.00,VWS V14.01,2013-12-04 09:17:00,
2013-12-04 11:18:00,0.0,0.0,29.97,WSW,248,4.3,4.3,0,0.00,,---,0.00,VWS V14.01,2013-12-04 09:18:00,
2013-12-04 11:20:00,0.0,0.0,29.97,WNW,292,1.6,1.6,0,0.00,,---,0.00,VWS V14.01,2013-12-04 09:20:00,
2013-12-04 11:21:00,0.0,0.0,29.97,WSW,248,3.6,3.6,0,0.00,,---,0.00,VWS V14.01,2013-12-04 09:21:00,
2013-12-04 11:24:00,0.0,0.0,29.97,SW,225,1.1,2.5,0,0.00,,---,0.00,VWS V14.01,2013-12-04 09:24:00,
2013-12-04 11:25:00,0.0,0.0,29.97,SW,225,1.1,1.1,0,0.00,,---,0.00,VWS V14.01,2013-12-04 09:25:00,
2013-12-04 11:26:00,0.0,0.0,29.97,WSW,248,3.4,3.4,0,0.00,,---,0.00,VWS V14.01,2013-12-04 09:26:00,
2013-12-04 11:28:00,0.0,0.0,29.97,WSW,248,3.6,3.6,0,0.00,,---,0.00,VWS V14.01,2013-12-04 09:28:00,
2013-12-04 11:30:00,0.0,0.0,29.97,WNW,292,2.0,3.6,0,0.00,,---,0.00,VWS V14.01,2013-12-04 09:30:00,
2013-12-04 11:32:00,0.0,0.0,29.97,WSW,248,2.9,2.9,0,0.00,,---,0.00,VWS V14.01,2013-12-04 09:32:00,
2013-12-04 11:33:00,0.0,0.0,29.97,WNW,292,1.1,3.4,0,0.00,,---,0.00,VWS V14.01,2013-12-04 09:33:00,
2013-12-04 11:35:00,0.0,0.0,29.97,WSW,248,0.9,4.9,0,0.00,,---,0.00,VWS V14.01,2013-12-04 09:35:00,
2013-12-04 11:37:00,0.0,0.0,29.97,WSW,248,3.8,3.8,0,0.00,,---,0.00,VWS V14.01,2013-12-04 09:37:00,
2013-12-04 11:39:00,0.0,0.0,29.97,WSW,248,2.0,3.6,0,0.00,,---,0.00,VWS V14.01,2013-12-04 09:39:00,
2013-12-04 11:42:00,0.0,0.0,29.97,SSW,202,3.1,3.1,0,0.00,,---,0.00,VWS V14.01,2013-12-04 09:42:00,
2013-12-04 11:43:00,0.0,0.0,29.97,WSW,248,2.7,4.9,0,0.00,,---,0.00,VWS V14.01,2013-12-04 09:43:00,
2013-12-04 11:44:00,0.0,0.0,29.97,WSW,248,2.9,3.1,0,0.00,,---,0.00,VWS V14.01,2013-12-04 09:44:00,
2013-12-04 11:45:00,0.0,0.0,29.97,WSW,248,3.4,4.0,0,0.00,,---,0.00,VWS V14.01,2013-12-04 09:45:00,
2013-12-04 11:46:00,0.0,0.0,29.97,WSW,248,2.2,4.0,0,0.00,,---,0.00,VWS V14.01,2013-12-04 09:46:00,
2013-12-04 11:49:00,0.0,0.0,29.97,WSW,248,0.9,3.8,0,0.00,,---,0.00,VWS V14.01,2013-12-04 09:49:00,
2013-12-04 11:50:00,0.0,0.0,29.97,WSW,248,2.5,2.5,0,0.00,,---,0.00,VWS V14.01,2013-12-04 09:50:00,
2013-12-04 11:51:00,0.0,0.0,29.97,WSW,248,0.0,3.4,0,0.00,,---,0.00,VWS V14.01,2013-12-04 09:51:00,
2013-12-04 11:56:00,0.0,0.0,29.97,WSW,248,1.1,2.9,0,0.00,,---,0.00,VWS V14.01,2013-12-04 09:56:00,
2013-12-04 11:57:00,0.0,0.0,29.97,SW,225,3.1,3.4,0,0.00,,---,0.00,VWS V14.01,2013-12-04 09:57:00,
2013-12-04 11:59:00,0.0,0.0,29.97,WSW,248,2.7,2.7,0,0.00,,---,0.00,VWS V14.01,2013-12-04 09:59:00,
2013-12-04 12:02:00,0.0,0.0,29.97,SW,225,1.3,1.3,0,0.00,,---,0.00,VWS V14.01,2013-12-04 10:02:00,
2013-12-04 12:07:00,0.0,0.0,29.97,WSW,248,3.8,4.0,0,0.00,,---,0.00,VWS V14.01,2013-12-04 10:07:00,
2013-12-04 12:08:00,0.0,0.0,29.97,WSW,248,1.6,3.8,0,0.00,,---,0.00,VWS V14.01,2013-12-04 10:08:00,
2013-12-04 12:09:00,0.0,0.0,29.97,WSW,248,2.5,2.9,0,0.00,,---,0.00,VWS V14.01,2013-12-04 10:09:00,
2013-12-04 12:11:00,0.0,0.0,29.97,SW,225,1.6,4.0,0,0.00,,---,0.00,VWS V14.01,2013-12-04 10:11:00,
2013-12-04 12:12:00,0.0,0.0,29.97,WSW,248,4.0,4.3,0,0.00,,---,0.00,VWS V14.01,2013-12-04 10:12:00,
2013-12-04 12:14:00,0.0,0.0,29.97,SW,225,4.3,4.3,0,0.00,,---,0.00,VWS V14.01,2013-12-04 10:14:00,
2013-12-04 12:15:00,0.0,0.0,29.97,West,270,3.6,4.3,0,0.00,,---,0.00,VWS V14.01,2013-12-04 10:15:00,
2013-12-04 12:16:00,0.0,0.0,29.97,WSW,248,2.0,4.9,0,0.00,,---,0.00,VWS V14.01,2013-12-04 10:16:00,
2013-12-04 12:17:00,0.0,0.0,29.97,West,270,3.4,7.4,0,0.00,,---,0.00,VWS V14.01,2013-12-04 10:17:00,
2013-12-04 12:22:00,0.0,0.0,29.97,SW,225,5.6,5.6,0,0.00,,---,0.00,VWS V14.01,2013-12-04 10:22:00,
2013-12-04 12:23:00,0.0,0.0,29.97,WSW,248,6.7,6.7,0,0.00,,---,0.00,VWS V14.01,2013-12-04 10:23:00,
2013-12-04 12:24:00,0.0,0.0,29.97,WSW,248,4.3,6.7,0,0.00,,---,0.00,VWS V14.01,2013-12-04 10:24:00,
2013-12-04 12:25:00,0.0,0.0,29.97,WSW,248,0.0,4.7,0,0.00,,---,0.00,VWS V14.01,2013-12-04 10:25:00,
2013-12-04 12:26:00,0.0,0.0,29.97,WSW,248,0.0,0.0,0,0.00,,---,0.00,VWS V14.01,2013-12-04 10:26:00,
2013-12-04 12:28:00,0.0,0.0,29.97,WSW,248,5.4,6.3,0,0.00,,---,0.00,VWS V14.01,2013-12-04 10:28:00,
2013-12-04 12:30:00,0.0,0.0,29.97,SSW,202,2.9,4.3,0,0.00,,---,0.00,VWS V14.01,2013-12-04 10:30:00,
2013-12-04 12:33:00,0.0,0.0,29.97,WSW,248,2.7,5.4,0,0.00,,---,0.00,VWS V14.01,2013-12-04 10:33:00,
2013-12-04 12:34:00,0.0,0.0,29.97,WSW,248,3.4,6.3,0,0.00,,---,0.00,VWS V14.01,2013-12-04 10:34:00,
2013-12-04 12:35:00,0.0,0.0,29.97,West,270,2.9,5.4,0,0.00,,---,0.00,VWS V14.01,2013-12-04 10:35:00,
2013-12-04 12:37:00,0.0,0.0,29.97,WSW,248,6.3,6.3,0,0.00,,---,0.00,VWS V14.01,2013-12-04 10:37:00,
2013-12-04 12:38:00,0.0,0.0,29.97,WSW,248,2.7,6.3,0,0.00,,---,0.00,VWS V14.01,2013-12-04 10:38:00,
2013-12-04 12:40:00,0.0,0.0,29.97,WSW,248,5.6,6.0,0,0.00,,---,0.00,VWS V14.01,2013-12-04 10:40:00,
2013-12-04 12:41:00,0.0,0.0,29.97,SW,225,3.6,5.6,0,0.00,,---,0.00,VWS V14.01,2013-12-04 10:41:00,
2013-12-04 12:42:00,0.0,0.0,29.97,WSW,248,3.4,3.6,0,0.00,,---,0.00,VWS V14.01,2013-12-04 10:42:00,
2013-12-04 12:46:00,0.0,0.0,29.97,SSW,202,2.5,4.3,0,0.00,,---,0.00,VWS V14.01,2013-12-04 10:46:00,
2013-12-04 12:47:00,0.0,0.0,29.97,WSW,248,2.0,5.4,0,0.00,,---,0.00,VWS V14.01,2013-12-04 10:47:00,
2013-12-04 12:48:00,0.0,0.0,29.97,SW,225,5.8,5.8,0,0.00,,---,0.00,VWS V14.01,2013-12-04 10:48:00,
2013-12-04 12:49:00,0.0,0.0,29.97,WSW,248,4.3,5.8,0,0.00,,---,0.00,VWS V14.01,2013-12-04 10:49:00,
2013-12-04 12:52:00,0.0,0.0,29.97,WSW,248,4.3,5.4,0,0.00,,---,0.00,VWS V14.01,2013-12-04 10:52:00,
2013-12-04 12:54:00,0.0,0.0,29.97,WSW,248,4.3,5.6,0,0.00,,---,0.00,VWS V14.01,2013-12-04 10:54:00,
2013-12-04 12:55:00,0.0,0.0,29.97,WSW,248,2.7,4.3,0,0.00,,---,0.00,VWS V14.01,2013-12-04 10:55:00,
2013-12-04 12:58:00,0.0,0.0,29.97,WSW,248,2.9,3.4,0,0.00,,---,0.00,VWS V14.01,2013-12-04 10:58:00,
2013-12-04 12:59:00,0.0,0.0,29.97,WSW,248,2.2,2.9,0,0.00,,---,0.00,VWS V14.01,2013-12-04 10:59:00,
2013-12-04 13:00:00,0.0,0.0,29.97,SW,225,1.1,3.6,0,0.00,,---,0.00,VWS V14.01,2013-12-04 11:00:00,
2013-12-04 13:01:00,0.0,0.0,29.97,WSW,248,4.9,4.9,0,0.00,,---,0.00,VWS V14.01,2013-12-04 11:01:00,
2013-12-04 13:02:00,0.0,0.0,29.97,WSW,248,2.2,4.9,0,0.00,,---,0.00,VWS V14.01,2013-12-04 11:02:00,
2013-12-04 13:05:00,0.0,0.0,29.97,SW,225,2.5,2.5,0,0.00,,---,0.00,VWS V14.01,2013-12-04 11:05:00,
2013-12-04 13:08:00,0.0,0.0,29.97,WSW,248,2.9,4.0,0,0.00,,---,0.00,VWS V14.01,2013-12-04 11:08:00,
2013-12-04 13:10:00,0.0,0.0,29.97,WSW,248,2.0,2.2,0,0.00,,---,0.00,VWS V14.01,2013-12-04 11:10:00,
2013-12-04 13:13:00,0.0,0.0,29.97,WSW,248,4.9,4.9,0,0.00,,---,0.00,VWS V14.01,2013-12-04 11:13:00,
2013-12-04 13:17:00,0.0,0.0,29.97,WSW,248,3.8,5.4,0,0.00,,---,0.00,VWS V14.01,2013-12-04 11:17:00,
2013-12-04 13:18:00,0.0,0.0,30.00,WSW,248,3.4,6.3,0,0.00,,---,0.00,VWS V14.01,2013-12-04 11:18:00,
2013-12-04 13:19:00,0.0,0.0,30.00,WSW,248,4.9,6.0,0,0.00,,---,0.00,VWS V14.01,2013-12-04 11:19:00,
2013-12-04 13:21:00,0.0,0.0,30.00,SW,225,2.5,2.9,0,0.00,,---,0.00,VWS V14.01,2013-12-04 11:21:00,
2013-12-04 13:22:00,0.0,0.0,30.00,SSW,202,2.0,2.7,0,0.00,,---,0.00,VWS V14.01,2013-12-04 11:22:00,
2013-12-04 13:23:00,0.0,0.0,30.00,WSW,248,0.0,3.1,0,0.00,,---,0.00,VWS V14.01,2013-12-04 11:23:00,
2013-12-04 13:24:00,0.0,0.0,30.00,WSW,248,4.0,4.0,0,0.00,,---,0.00,VWS V14.01,2013-12-04 11:24:00,
2013-12-04 13:26:00,0.0,0.0,30.00,West,270,1.3,2.9,0,0.00,,---,0.00,VWS V14.01,2013-12-04 11:26:00,
2013-12-04 13:28:00,0.0,0.0,30.00,WNW,292,2.5,3.4,0,0.00,,---,0.00,VWS V14.01,2013-12-04 11:28:00,
2013-12-04 13:29:00,0.0,0.0,30.00,WSW,248,2.2,4.3,0,0.00,,---,0.00,VWS V14.01,2013-12-04 11:29:00,
2013-12-04 13:30:00,0.0,0.0,30.00,WSW,248,2.5,3.8,0,0.00,,---,0.00,VWS V14.01,2013-12-04 11:30:00,
2013-12-04 13:34:00,0.0,0.0,30.00,WSW,248,2.7,2.7,0,0.00,,---,0.00,VWS V14.01,2013-12-04 11:34:00,
2013-12-04 13:35:00,0.0,0.0,30.00,West,270,3.8,3.8,0,0.00,,---,0.00,VWS V14.01,2013-12-04 11:35:00,
2013-12-04 13:36:00,0.0,0.0,30.00,WSW,248,4.0,4.0,0,0.00,,---,0.00,VWS V14.01,2013-12-04 11:36:00,
2013-12-04 13:40:00,0.0,0.0,30.00,WSW,248,2.9,3.4,0,0.00,,---,0.00,VWS V14.01,2013-12-04 11:40:00,
2013-12-04 13:41:00,0.0,0.0,30.00,WSW,248,2.2,3.8,0,0.00,,---,0.00,VWS V14.01,2013-12-04 11:41:00,
2013-12-04 13:42:00,0.0,0.0,30.00,WSW,248,3.4,4.3,0,0.00,,---,0.00,VWS V14.01,2013-12-04 11:42:00,
2013-12-04 13:43:00,0.0,0.0,30.00,WSW,248,3.4,4.0,0,0.00,,---,0.00,VWS V14.01,2013-12-04 11:43:00,
2013-12-04 13:46:00,0.0,0.0,30.00,WSW,248,2.5,2.9,0,0.00,,---,0.00,VWS V14.01,2013-12-04 11:46:00,
2013-12-04 13:47:00,0.0,0.0,30.00,WSW,248,2.0,3.4,0,0.00,,---,0.00,VWS V14.01,2013-12-04 11:47:00,
2013-12-04 13:48:00,0.0,0.0,30.00,WSW,248,0.0,4.7,0,0.00,,---,0.00,VWS V14.01,2013-12-04 11:48:00,
2013-12-04 13:50:00,0.0,0.0,30.00,WSW,248,3.4,5.6,0,0.00,,---,0.00,VWS V14.01,2013-12-04 11:50:00,
2013-12-04 13:51:00,0.0,0.0,30.00,WSW,248,3.6,4.7,0,0.00,,---,0.00,VWS V14.01,2013-12-04 11:51:00,
2013-12-04 13:52:00,0.0,0.0,30.00,WSW,248,2.5,3.8,0,0.00,,---,0.00,VWS V14.01,2013-12-04 11:52:00,
2013-12-04 13:54:00,0.0,0.0,30.00,WSW,248,1.1,2.9,0,0.00,,---,0.00,VWS V14.01,2013-12-04 11:54:00,
2013-12-04 13:56:00,0.0,0.0,30.00,WSW,248,1.1,3.8,0,0.00,,---,0.00,VWS V14.01,2013-12-04 11:56:00,
2013-12-04 13:57:00,0.0,0.0,30.00,WSW,248,0.0,3.1,0,0.00,,---,0.00,VWS V14.01,2013-12-04 11:57:00,
2013-12-04 13:59:00,0.0,0.0,30.00,SSW,202,1.1,2.9,0,0.00,,---,0.00,VWS V14.01,2013-12-04 11:59:00,
2013-12-04 14:00:00,0.0,0.0,30.00,WSW,248,2.7,2.7,0,0.00,,---,0.00,VWS V14.01,2013-12-04 12:00:00,
2013-12-04 14:02:00,0.0,0.0,30.00,West,270,2.9,2.9,0,0.00,,---,0.00,VWS V14.01,2013-12-04 12:02:00,
2013-12-04 14:03:00,0.0,0.0,30.00,WSW,248,1.1,2.9,0,0.00,,---,0.00,VWS V14.01,2013-12-04 12:03:00,
2013-12-04 14:04:00,0.0,0.0,30.00,SSW,202,1.1,2.7,0,0.00,,---,0.00,VWS V14.01,2013-12-04 12:04:00,
2013-12-04 14:07:00,0.0,0.0,30.00,WSW,248,2.2,3.1,0,0.00,,---,0.00,VWS V14.01,2013-12-04 12:07:00,
2013-12-04 14:08:00,0.0,0.0,30.00,WSW,248,2.2,2.2,0,0.00,,---,0.00,VWS V14.01,2013-12-04 12:08:00,
2013-12-04 14:09:00,0.0,0.0,30.00,SW,225,0.0,2.2,0,0.00,,---,0.00,VWS V14.01,2013-12-04 12:09:00,
2013-12-04 14:11:00,0.0,0.0,30.00,WSW,248,0.0,0.0,0,0.00,,---,0.00,VWS V14.01,2013-12-04 12:11:00,
2013-12-04 14:12:00,0.0,0.0,30.00,SSE,158,2.9,4.7,0,0.00,,---,0.00,VWS V14.01,2013-12-04 12:12:00,
2013-12-04 14:14:00,0.0,0.0,30.00,SSW,202,3.8,4.0,0,0.00,,---,0.00,VWS V14.01,2013-12-04 12:14:00,
2013-12-04 14:16:00,0.0,0.0,30.00,SW,225,2.2,3.1,0,0.00,,---,0.00,VWS V14.01,2013-12-04 12:16:00,
2013-12-04 14:20:00,0.0,0.0,30.00,WSW,248,4.3,4.3,0,0.00,,---,0.00,VWS V14.01,2013-12-04 12:20:00,
2013-12-04 14:22:00,0.0,0.0,30.00,SW,225,4.3,4.3,0,0.00,,---,0.00,VWS V14.01,2013-12-04 12:22:00,
2013-12-04 14:23:00,0.0,0.0,30.00,SW,225,3.8,4.3,0,0.00,,---,0.00,VWS V14.01,2013-12-04 12:23:00,
2013-12-04 14:24:00,0.0,0.0,30.00,WSW,248,5.4,5.4,0,0.00,,---,0.00,VWS V14.01,2013-12-04 12:24:00,
2013-12-04 14:25:00,0.0,0.0,30.00,WSW,248,2.0,5.4,0,0.00,,---,0.00,VWS V14.01,2013-12-04 12:25:00,
2013-12-04 14:26:00,0.0,0.0,30.00,WSW,248,2.5,4.3,0,0.00,,---,0.00,VWS V14.01,2013-12-04 12:26:00,
2013-12-04 14:27:00,0.0,0.0,30.00,WSW,248,0.0,3.1,0,0.00,,---,0.00,VWS V14.01,2013-12-04 12:27:00,
2013-12-04 14:32:00,0.0,0.0,30.00,West,270,2.0,3.1,0,0.00,,---,0.00,VWS V14.01,2013-12-04 12:32:00,
2013-12-04 14:33:00,0.0,0.0,30.00,SW,225,3.1,3.1,0,0.00,,---,0.00,VWS V14.01,2013-12-04 12:33:00,
2013-12-04 14:36:00,0.0,0.0,30.00,WSW,248,3.1,3.1,0,0.00,,---,0.00,VWS V14.01,2013-12-04 12:36:00,
2013-12-04 14:37:00,0.0,0.0,30.00,WSW,248,1.3,3.1,0,0.00,,---,0.00,VWS V14.01,2013-12-04 12:37:00,
2013-12-04 14:38:00,0.0,0.0,30.00,WNW,292,0.9,2.0,0,0.00,,---,0.00,VWS V14.01,2013-12-04 12:38:00,
2013-12-04 14:40:00,0.0,0.0,30.00,South,180,2.5,2.5,0,0.00,,---,0.00,VWS V14.01,2013-12-04 12:40:00,
2013-12-04 14:42:00,0.0,0.0,30.00,WNW,292,0.9,3.1,0,0.00,,---,0.00,VWS V14.01,2013-12-04 12:42:00,
2013-12-04 14:46:00,0.0,0.0,30.00,SSW,202,2.7,3.8,0,0.00,,---,0.00,VWS V14.01,2013-12-04 12:46:00,
2013-12-04 14:47:00,0.0,0.0,30.00,West,270,1.1,2.9,0,0.00,,---,0.00,VWS V14.01,2013-12-04 12:47:00,
2013-12-04 14:48:00,0.0,0.0,30.00,WSW,248,3.6,3.6,0,0.00,,---,0.00,VWS V14.01,2013-12-04 12:48:00,
2013-12-04 14:49:00,0.0,0.0,30.00,SW,225,2.7,3.6,0,0.00,,---,0.00,VWS V14.01,2013-12-04 12:49:00,
2013-12-04 14:52:00,0.0,0.0,30.00,SSW,202,3.1,3.4,0,0.00,,---,0.00,VWS V14.01,2013-12-04 12:52:00,
2013-12-04 14:56:00,0.0,0.0,30.00,SW,225,3.6,5.8,0,0.00,,---,0.00,VWS V14.01,2013-12-04 12:56:00,
2013-12-04 14:57:00,0.0,0.0,30.00,WSW,248,3.8,3.8,0,0.00,,---,0.00,VWS V14.01,2013-12-04 12:57:00,
2013-12-04 14:59:00,0.0,0.0,30.00,SW,225,2.7,2.7,0,0.00,,---,0.00,VWS V14.01,2013-12-04 12:59:00,
2013-12-04 15:01:00,0.0,0.0,30.00,SW,225,2.9,3.4,0,0.00,,---,0.00,VWS V14.01,2013-12-04 13:01:00,
2013-12-04 15:03:00,0.0,0.0,30.00,WNW,292,2.0,3.6,0,0.00,,---,0.00,VWS V14.01,2013-12-04 13:03:00,
2013-12-04 15:04:00,0.0,0.0,30.00,WSW,248,3.1,3.1,0,0.00,,---,0.00,VWS V14.01,2013-12-04 13:04:00,
2013-12-04 15:06:00,0.0,0.0,30.00,SSW,202,2.2,2.9,0,0.00,,---,0.00,VWS V14.01,2013-12-04 13:06:00,
2013-12-04 15:08:00,0.0,0.0,30.00,WSW,248,2.7,2.9,0,0.00,,---,0.00,VWS V14.01,2013-12-04 13:08:00,
2013-12-04 15:09:00,0.0,0.0,30.00,SW,225,3.4,3.4,0,0.00,,---,0.00,VWS V14.01,2013-12-04 13:09:00,
2013-12-04 15:10:00,0.0,0.0,30.00,SSW,202,3.8,5.8,0,0.00,,---,0.00,VWS V14.01,2013-12-04 13:10:00,
2013-12-04 15:11:00,0.0,0.0,30.00,WSW,248,1.6,3.8,0,0.00,,---,0.00,VWS V14.01,2013-12-04 13:11:00,
2013-12-04 15:15:00,0.0,0.0,30.00,WSW,248,1.6,2.7,0,0.00,,---,0.00,VWS V14.01,2013-12-04 13:15:00,
2013-12-04 15:17:00,0.0,0.0,30.00,WSW,248,3.8,3.8,0,0.00,,---,0.00,VWS V14.01,2013-12-04 13:17:00,
2013-12-04 15:18:00,0.0,0.0,30.00,WSW,248,2.7,4.0,0,0.00,,---,0.00,VWS V14.01,2013-12-04 13:18:00,
2013-12-04 15:21:00,0.0,0.0,30.00,SW,225,2.9,4.0,0,0.00,,---,0.00,VWS V14.01,2013-12-04 13:21:00,
2013-12-04 15:24:00,0.0,0.0,30.00,WSW,248,1.6,2.5,0,0.00,,---,0.00,VWS V14.01,2013-12-04 13:24:00,
2013-12-04 15:26:00,0.0,0.0,30.00,WSW,248,1.1,4.9,0,0.00,,---,0.00,VWS V14.01,2013-12-04 13:26:00,
2013-12-04 15:27:00,0.0,0.0,30.00,WSW,248,2.0,3.6,0,0.00,,---,0.00,VWS V14.01,2013-12-04 13:27:00,
2013-12-04 15:28:00,0.0,0.0,30.00,WSW,248,2.7,2.9,0,0.00,,---,0.00,VWS V14.01,2013-12-04 13:28:00,
2013-12-04 15:30:00,0.0,0.0,30.00,WSW,248,2.9,2.9,0,0.00,,---,0.00,VWS V14.01,2013-12-04 13:30:00,
2013-12-04 15:31:00,0.0,0.0,30.00,WSW,248,1.1,4.7,0,0.00,,---,0.00,VWS V14.01,2013-12-04 13:31:00,
2013-12-04 15:32:00,0.0,0.0,30.00,SW,225,3.1,3.1,0,0.00,,---,0.00,VWS V14.01,2013-12-04 13:32:00,
2013-12-04 15:33:00,0.0,0.0,30.00,WSW,248,1.1,3.1,0,0.00,,---,0.00,VWS V14.01,2013-12-04 13:33:00,
2013-12-04 15:35:00,0.0,0.0,30.00,SSW,202,1.1,3.8,0,0.00,,---,0.00,VWS V14.01,2013-12-04 13:35:00,
2013-12-04 15:38:00,0.0,0.0,30.00,SW,225,2.0,2.5,0,0.00,,---,0.00,VWS V14.01,2013-12-04 13:38:00,
2013-12-04 15:40:00,0.0,0.0,30.00,West,270,2.2,2.9,0,0.00,,---,0.00,VWS V14.01,2013-12-04 13:40:00,
2013-12-04 15:41:00,0.0,0.0,30.00,SW,225,2.7,2.9,0,0.00,,---,0.00,VWS V14.01,2013-12-04 13:41:00,
2013-12-04 15:42:00,0.0,0.0,30.00,WSW,248,2.0,2.9,0,0.00,,---,0.00,VWS V14.01,2013-12-04 13:42:00,
2013-12-04 15:45:00,0.0,0.0,30.00,SW,225,2.5,4.0,0,0.00,,---,0.00,VWS V14.01,2013-12-04 13:45:00,
2013-12-04 15:46:00,0.0,0.0,30.00,SSW,202,0.0,4.3,0,0.00,,---,0.00,VWS V14.01,2013-12-04 13:46:00,
2013-12-04 15:51:00,0.0,0.0,30.00,SSW,202,4.3,4.7,0,0.00,,---,0.00,VWS V14.01,2013-12-04 13:51:00,
2013-12-04 15:52:00,0.0,0.0,30.00,SSW,202,6.0,7.8,0,0.00,,---,0.00,VWS V14.01,2013-12-04 13:52:00,
2013-12-04 15:56:00,0.0,0.0,30.00,WNW,292,4.3,7.8,0,0.00,,---,0.00,VWS V14.01,2013-12-04 13:56:00,
2013-12-04 15:58:00,0.0,0.0,30.00,South,180,4.0,4.3,0,0.00,,---,0.00,VWS V14.01,2013-12-04 13:58:00,
2013-12-04 15:59:00,0.0,0.0,30.00,SSW,202,4.9,4.9,0,0.00,,---,0.00,VWS V14.01,2013-12-04 13:59:00,
2013-12-04 16:01:00,0.0,0.0,30.00,SSW,202,4.7,4.7,0,0.00,,---,0.00,VWS V14.01,2013-12-04 14:01:00,
2013-12-04 16:03:00,0.0,0.0,30.00,WSW,248,3.6,6.0,0,0.00,,---,0.00,VWS V14.01,2013-12-04 14:03:00,
2013-12-04 16:05:00,0.0,0.0,30.00,SSW,202,0.9,4.3,0,0.00,,---,0.00,VWS V14.01,2013-12-04 14:05:00,
2013-12-04 16:06:00,0.0,0.0,30.00,SW,225,4.3,4.3,0,0.00,,---,0.00,VWS V14.01,2013-12-04 14:06:00,
2013-12-04 16:07:00,0.0,0.0,30.00,WSW,248,2.9,4.3,0,0.00,,---,0.00,VWS V14.01,2013-12-04 14:07:00,
2013-12-04 16:08:00,0.0,0.0,30.00,SSW,202,2.7,2.9,0,0.00,,---,0.00,VWS V14.01,2013-12-04 14:08:00,
2013-12-04 16:10:00,0.0,0.0,30.00,SSW,202,4.7,4.9,0,0.00,,---,0.00,VWS V14.01,2013-12-04 14:10:00,
2013-12-04 16:12:00,0.0,0.0,30.00,SSW,202,6.3,7.2,0,0.00,,---,0.00,VWS V14.01,2013-12-04 14:12:00,
2013-12-04 16:13:00,0.0,0.0,30.00,SSW,202,0.0,6.3,0,0.00,,---,0.00,VWS V14.01,2013-12-04 14:13:00,
2013-12-04 16:15:00,0.0,0.0,30.00,WSW,248,2.9,4.9,0,0.00,,---,0.00,VWS V14.01,2013-12-04 14:15:00,
2013-12-04 16:17:00,0.0,0.0,30.00,SSW,202,7.4,7.4,0,0.00,,---,0.00,VWS V14.01,2013-12-04 14:17:00,
2013-12-04 16:19:00,0.0,0.0,30.00,WSW,248,2.7,4.3,0,0.00,,---,0.00,VWS V14.01,2013-12-04 14:19:00,
2013-12-04 16:20:00,0.0,0.0,30.00,SW,225,4.0,5.8,0,0.00,,---,0.00,VWS V14.01,2013-12-04 14:20:00,
2013-12-04 16:22:00,0.0,0.0,30.00,SSW,202,1.1,4.9,0,0.00,,---,0.00,VWS V14.01,2013-12-04 14:22:00,
2013-12-04 16:25:00,0.0,0.0,30.00,WSW,248,2.2,4.0,0,0.00,,---,0.00,VWS V14.01,2013-12-04 14:25:00,
2013-12-04 16:26:00,0.0,0.0,30.00,SW,225,4.5,5.6,0,0.00,,---,0.00,VWS V14.01,2013-12-04 14:26:00,
2013-12-04 16:27:00,0.0,0.0,30.00,South,180,3.4,4.5,0,0.00,,---,0.00,VWS V14.01,2013-12-04 14:27:00,
2013-12-04 16:31:00,0.0,0.0,30.00,SW,225,4.0,4.0,0,0.00,,---,0.00,VWS V14.01,2013-12-04 14:31:00,
2013-12-04 16:33:00,0.0,0.0,30.00,SSW,202,4.9,5.4,0,0.00,,---,0.00,VWS V14.01,2013-12-04 14:33:00,
2013-12-04 16:34:00,0.0,0.0,30.00,SSW,202,4.3,4.9,0,0.00,,---,0.00,VWS V14.01,2013-12-04 14:34:00,
2013-12-04 16:36:00,0.0,0.0,30.00,WSW,248,3.8,5.6,0,0.00,,---,0.00,VWS V14.01,2013-12-04 14:36:00,
2013-12-04 16:37:00,0.0,0.0,30.00,WSW,248,2.0,4.0,0,0.00,,---,0.00,VWS V14.01,2013-12-04 14:37:00,
2013-12-04 16:39:00,0.0,0.0,30.00,WSW,248,3.1,3.6,0,0.00,,---,0.00,VWS V14.01,2013-12-04 14:39:00,
2013-12-04 16:40:00,0.0,0.0,30.00,SW,225,1.1,3.8,0,0.00,,---,0.00,VWS V14.01,2013-12-04 14:40:00,
2013-12-04 16:43:00,0.0,0.0,30.00,WSW,248,2.7,5.6,0,0.00,,---,0.00,VWS V14.01,2013-12-04 14:43:00,
2013-12-04 16:45:00,0.0,0.0,30.00,WSW,248,3.4,3.8,0,0.00,,---,0.00,VWS V14.01,2013-12-04 14:45:00,
2013-12-04 16:46:00,0.0,0.0,30.00,SW,225,3.8,4.0,0,0.00,,---,0.00,VWS V14.01,2013-12-04 14:46:00,
2013-12-04 16:47:00,0.0,0.0,30.00,WSW,248,6.5,6.5,0,0.00,,---,0.00,VWS V14.01,2013-12-04 14:47:00,
2013-12-04 16:50:00,0.0,0.0,30.00,SSW,202,3.6,6.5,0,0.00,,---,0.00,VWS V14.01,2013-12-04 14:50:00,
2013-12-04 16:52:00,0.0,0.0,30.00,WSW,248,4.0,6.5,0,0.00,,---,0.00,VWS V14.01,2013-12-04 14:52:00,
2013-12-04 16:53:00,0.0,0.0,30.00,SSW,202,3.4,4.0,0,0.00,,---,0.00,VWS V14.01,2013-12-04 14:53:00,
2013-12-04 16:54:00,0.0,0.0,30.00,SW,225,5.8,6.5,0,0.00,,---,0.00,VWS V14.01,2013-12-04 14:54:00,
2013-12-04 16:56:00,0.0,0.0,30.00,WSW,248,5.8,5.8,0,0.00,,---,0.00,VWS V14.01,2013-12-04 14:56:00,
2013-12-04 16:58:00,0.0,0.0,30.00,SW,225,1.6,5.6,0,0.00,,---,0.00,VWS V14.01,2013-12-04 14:58:00,
2013-12-04 17:00:00,0.0,0.0,30.00,SW,225,3.1,4.3,0,0.00,,---,0.00,VWS V14.01,2013-12-04 15:00:00,
2013-12-04 17:01:00,0.0,0.0,30.00,SSW,202,4.0,4.0,0,0.00,,---,0.00,VWS V14.01,2013-12-04 15:01:00,
2013-12-04 17:05:00,0.0,0.0,30.03,WSW,248,1.3,1.3,0,0.00,,---,0.00,VWS V14.01,2013-12-04 15:05:00,
2013-12-04 17:06:00,0.0,0.0,30.03,WSW,248,2.7,5.4,0,0.00,,---,0.00,VWS V14.01,2013-12-04 15:06:00,
2013-12-04 17:07:00,0.0,0.0,30.03,WSW,248,3.6,5.8,0,0.00,,---,0.00,VWS V14.01,2013-12-04 15:07:00,
2013-12-04 17:09:00,0.0,0.0,30.03,WSW,248,5.6,5.6,0,0.00,,---,0.00,VWS V14.01,2013-12-04 15:09:00,
2013-12-04 17:10:00,0.0,0.0,30.03,SSW,202,2.7,5.6,0,0.00,,---,0.00,VWS V14.01,2013-12-04 15:10:00,
2013-12-04 17:11:00,0.0,0.0,30.03,WSW,248,5.8,5.8,0,0.00,,---,0.00,VWS V14.01,2013-12-04 15:11:00,
2013-12-04 17:13:00,0.0,0.0,30.03,SSW,202,2.7,4.0,0,0.00,,---,0.00,VWS V14.01,2013-12-04 15:13:00,
2013-12-04 17:14:00,0.0,0.0,30.03,SW,225,4.0,4.3,0,0.00,,---,0.00,VWS V14.01,2013-12-04 15:14:00,
2013-12-04 17:16:00,0.0,0.0,30.03,WSW,248,4.0,4.3,0,0.00,,---,0.00,VWS V14.01,2013-12-04 15:16:00,
2013-12-04 17:19:00,0.0,0.0,30.00,SW,225,0.0,2.9,0,0.00,,---,0.00,VWS V14.01,2013-12-04 15:19:00,
2013-12-04 17:20:00,0.0,0.0,30.00,SW,225,0.0,0.0,0,0.00,,---,0.00,VWS V14.01,2013-12-04 15:20:00,
2013-12-04 17:23:00,0.0,0.0,30.00,WSW,248,0.0,0.0,0,0.00,,---,0.00,VWS V14.01,2013-12-04 15:23:00,
2013-12-04 17:24:00,0.0,0.0,30.00,SSW,202,0.0,0.0,0,0.00,,---,0.00,VWS V14.01,2013-12-04 15:24:00,
2013-12-04 17:25:00,0.0,0.0,30.00,SSW,202,0.0,0.0,0,0.00,,---,0.00,VWS V14.01,2013-12-04 15:25:00,
2013-12-04 17:26:00,0.0,0.0,30.00,SW,225,3.4,5.8,0,0.00,,---,0.00,VWS V14.01,2013-12-04 15:26:00,
2013-12-04 17:27:00,0.0,0.0,30.00,SW,225,1.1,5.4,0,0.00,,---,0.00,VWS V14.01,2013-12-04 15:27:00,
2013-12-04 17:29:00,0.0,0.0,30.00,SSW,202,3.6,3.8,0,0.00,,---,0.00,VWS V14.01,2013-12-04 15:29:00,
2013-12-04 17:33:00,0.0,0.0,30.00,WSW,248,1.1,1.3,0,0.00,,---,0.00,VWS V14.01,2013-12-04 15:33:00,
2013-12-04 17:35:00,0.0,0.0,30.03,WSW,248,2.7,5.8,0,0.00,,---,0.00,VWS V14.01,2013-12-04 15:35:00,
2013-12-04 17:36:00,0.0,0.0,30.03,SSW,202,2.7,3.8,0,0.00,,---,0.00,VWS V14.01,2013-12-04 15:36:00,
2013-12-04 17:39:00,0.0,0.0,30.03,SSW,202,2.0,7.6,0,0.00,,---,0.00,VWS V14.01,2013-12-04 15:39:00,
2013-12-04 17:40:00,0.0,0.0,30.03,SW,225,2.7,5.4,0,0.00,,---,0.00,VWS V14.01,2013-12-04 15:40:00,
2013-12-04 17:42:00,0.0,0.0,30.03,SW,225,2.0,6.0,0,0.00,,---,0.00,VWS V14.01,2013-12-04 15:42:00,
2013-12-04 17:44:00,0.0,0.0,30.03,SW,225,2.9,5.4,0,0.00,,---,0.00,VWS V14.01,2013-12-04 15:44:00,
2013-12-04 17:45:00,0.0,0.0,30.03,WSW,248,3.8,4.5,0,0.00,,---,0.00,VWS V14.01,2013-12-04 15:45:00,
2013-12-04 17:48:00,0.0,0.0,30.03,SW,225,3.8,3.8,0,0.00,,---,0.00,VWS V14.01,2013-12-04 15:48:00,
2013-12-04 17:49:00,0.0,0.0,30.03,SSW,202,0.0,3.8,0,0.00,,---,0.00,VWS V14.01,2013-12-04 15:49:00,
2013-12-04 17:52:00,0.0,0.0,30.03,WSW,248,2.0,2.2,0,0.00,,---,0.00,VWS V14.01,2013-12-04 15:52:00,
2013-12-04 17:53:00,0.0,0.0,30.03,SSW,202,2.0,2.9,0,0.00,,---,0.00,VWS V14.01,2013-12-04 15:53:00,
2013-12-04 17:54:00,0.0,0.0,30.03,WSW,248,3.8,4.3,0,0.00,,---,0.00,VWS V14.01,2013-12-04 15:54:00,
2013-12-04 17:55:00,0.0,0.0,30.03,SSW,202,2.5,4.9,0,0.00,,---,0.00,VWS V14.01,2013-12-04 15:55:00,
2013-12-04 17:57:00,0.0,0.0,30.03,SSW,202,5.6,5.6,0,0.00,,---,0.00,VWS V14.01,2013-12-04 15:57:00,
2013-12-04 18:00:00,0.0,0.0,30.03,WSW,248,2.5,3.6,0,0.00,,---,0.00,VWS V14.01,2013-12-04 16:00:00,
2013-12-04 18:02:00,0.0,0.0,30.03,SW,225,0.0,5.6,0,0.00,,---,0.00,VWS V14.01,2013-12-04 16:02:00,
2013-12-04 18:04:00,0.0,0.0,30.03,WSW,248,3.4,4.0,0,0.00,,---,0.00,VWS V14.01,2013-12-04 16:04:00,
2013-12-04 18:05:00,0.0,0.0,30.03,WSW,248,3.1,5.6,0,0.00,,---,0.00,VWS V14.01,2013-12-04 16:05:00,
2013-12-04 18:09:00,0.0,0.0,30.03,SSW,202,4.0,4.9,0,0.00,,---,0.00,VWS V14.01,2013-12-04 16:09:00,
2013-12-04 18:11:00,0.0,0.0,30.03,SSW,202,2.0,3.6,0,0.00,,---,0.00,VWS V14.01,2013-12-04 16:11:00,
2013-12-04 18:12:00,0.0,0.0,30.03,SW,225,2.7,4.0,0,0.00,,---,0.00,VWS V14.01,2013-12-04 16:12:00,
2013-12-04 18:13:00,0.0,0.0,30.03,SSW,202,3.6,4.0,0,0.00,,---,0.00,VWS V14.01,2013-12-04 16:13:00,
2013-12-04 18:14:00,0.0,0.0,30.03,WSW,248,3.8,3.8,0,0.00,,---,0.00,VWS V14.01,2013-12-04 16:14:00,
2013-12-04 18:17:00,0.0,0.0,30.03,WSW,248,2.9,2.9,0,0.00,,---,0.00,VWS V14.01,2013-12-04 16:17:00,
2013-12-04 18:18:00,0.0,0.0,30.03,WSW,248,3.8,3.8,0,0.00,,---,0.00,VWS V14.01,2013-12-04 16:18:00,
2013-12-04 18:21:00,0.0,0.0,30.03,South,180,3.1,4.5,0,0.00,,---,0.00,VWS V14.01,2013-12-04 16:21:00,
2013-12-04 18:23:00,0.0,0.0,30.03,SW,225,0.9,4.0,0,0.00,,---,0.00,VWS V14.01,2013-12-04 16:23:00,
2013-12-04 18:26:00,0.0,0.0,30.03,WSW,248,3.1,4.7,0,0.00,,---,0.00,VWS V14.01,2013-12-04 16:26:00,
2013-12-04 18:28:00,0.0,0.0,30.03,WSW,248,2.5,3.6,0,0.00,,---,0.00,VWS V14.01,2013-12-04 16:28:00,
2013-12-04 18:30:00,0.0,0.0,30.03,WSW,248,4.0,4.3,0,0.00,,---,0.00,VWS V14.01,2013-12-04 16:30:00,
2013-12-04 18:31:00,0.0,0.0,30.03,WSW,248,3.1,4.0,0,0.00,,---,0.00,VWS V14.01,2013-12-04 16:31:00,
2013-12-04 18:32:00,0.0,0.0,30.03,SSW,202,2.7,3.6,0,0.00,,---,0.00,VWS V14.01,2013-12-04 16:32:00,
2013-12-04 18:34:00,0.0,0.0,30.03,SSW,202,3.4,4.0,0,0.00,,---,0.00,VWS V14.01,2013-12-04 16:34:00,
2013-12-04 18:36:00,0.0,0.0,30.06,WSW,248,1.6,2.5,0,0.00,,---,0.00,VWS V14.01,2013-12-04 16:36:00,
2013-12-04 18:37:00,0.0,0.0,30.06,SW,225,3.1,3.1,0,0.00,,---,0.00,VWS V14.01,2013-12-04 16:37:00,
2013-12-04 18:38:00,0.0,0.0,30.06,WSW,248,0.0,3.4,0,0.00,,---,0.00,VWS V14.01,2013-12-04 16:38:00,
2013-12-04 18:39:00,0.0,0.0,30.06,SW,225,1.3,2.0,0,0.00,,---,0.00,VWS V14.01,2013-12-04 16:39:00,
2013-12-04 18:42:00,0.0,0.0,30.06,WSW,248,1.1,2.9,0,0.00,,---,0.00,VWS V14.01,2013-12-04 16:42:00,
2013-12-04 18:43:00,0.0,0.0,30.06,SSW,202,1.1,3.8,0,0.00,,---,0.00,VWS V14.01,2013-12-04 16:43:00,
2013-12-04 18:45:00,0.0,0.0,30.06,WSW,248,3.6,5.6,0,0.00,,---,0.00,VWS V14.01,2013-12-04 16:45:00,
2013-12-04 18:46:00,0.0,0.0,30.06,SW,225,4.0,4.3,0,0.00,,---,0.00,VWS V14.01,2013-12-04 16:46:00,
2013-12-04 18:47:00,0.0,0.0,30.06,SW,225,2.0,4.0,0,0.00,,---,0.00,VWS V14.01,2013-12-04 16:47:00,
2013-12-04 18:48:00,0.0,0.0,30.06,SSW,202,1.1,4.0,0,0.00,,---,0.00,VWS V14.01,2013-12-04 16:48:00,
2013-12-04 18:51:00,0.0,0.0,30.06,SW,225,5.6,5.6,0,0.00,,---,0.00,VWS V14.01,2013-12-04 16:51:00,
2013-12-04 18:53:00,0.0,0.0,30.06,WSW,248,2.9,2.9,0,0.00,,---,0.00,VWS V14.01,2013-12-04 16:53:00,
2013-12-04 18:54:00,0.0,0.0,30.06,WSW,248,1.1,2.9,0,0.00,,---,0.00,VWS V14.01,2013-12-04 16:54:00,
2013-12-04 18:55:00,0.0,0.0,30.06,WSW,248,2.5,2.5,0,0.00,,---,0.00,VWS V14.01,2013-12-04 16:55:00,
2013-12-04 18:59:00,0.0,0.0,30.06,WSW,248,0.9,3.8,0,0.00,,---,0.00,VWS V14.01,2013-12-04 16:59:00,
2013-12-04 19:00:00,0.0,0.0,30.06,SW,225,4.3,4.7,0,0.00,,---,0.00,VWS V14.01,2013-12-04 17:00:00,
2013-12-04 19:01:00,0.0,0.0,30.06,WSW,248,3.1,4.3,0,0.00,,---,0.00,VWS V14.01,2013-12-04 17:01:00,
2013-12-04 19:02:00,0.0,0.0,30.06,WSW,248,4.0,4.7,0,0.00,,---,0.00,VWS V14.01,2013-12-04 17:02:00,
2013-12-04 19:05:00,0.0,0.0,30.06,SW,225,2.9,4.0,0,0.00,,---,0.00,VWS V14.01,2013-12-04 17:05:00,
2013-12-04 19:06:00,0.0,0.0,30.06,SW,225,1.3,2.9,0,0.00,,---,0.00,VWS V14.01,2013-12-04 17:06:00,
2013-12-04 19:07:00,0.0,0.0,30.06,SSW,202,2.9,4.0,0,0.00,,---,0.00,VWS V14.01,2013-12-04 17:07:00,
2013-12-04 19:08:00,0.0,0.0,30.06,SW,225,4.0,4.0,0,0.00,,---,0.00,VWS V14.01,2013-12-04 17:08:00,
2013-12-04 19:09:00,0.0,0.0,30.06,SSW,202,1.3,4.0,0,0.00,,---,0.00,VWS V14.01,2013-12-04 17:09:00,
2013-12-04 19:12:00,0.0,0.0,30.06,WSW,248,1.1,2.7,0,0.00,,---,0.00,VWS V14.01,2013-12-04 17:12:00,
2013-12-04 19:18:00,0.0,0.0,30.06,SW,225,3.6,3.8,0,0.00,,---,0.00,VWS V14.01,2013-12-04 17:18:00,
2013-12-04 19:19:00,0.0,0.0,30.06,WSW,248,2.5,4.0,0,0.00,,---,0.00,VWS V14.01,2013-12-04 17:19:00,
2013-12-04 19:20:00,0.0,0.0,30.06,SW,225,2.0,2.5,0,0.00,,---,0.00,VWS V14.01,2013-12-04 17:20:00,
2013-12-04 19:22:00,0.0,0.0,30.06,WSW,248,0.9,2.5,0,0.00,,---,0.00,VWS V14.01,2013-12-04 17:22:00,
2013-12-04 19:24:00,0.0,0.0,30.06,SSW,202,1.6,3.1,0,0.00,,---,0.00,VWS V14.01,2013-12-04 17:24:00,
2013-12-04 19:26:00,0.0,0.0,30.06,WSW,248,2.7,2.7,0,0.00,,---,0.00,VWS V14.01,2013-12-04 17:26:00,
2013-12-04 19:27:00,0.0,0.0,30.06,South,180,1.1,2.7,0,0.00,,---,0.00,VWS V14.01,2013-12-04 17:27:00,
2013-12-04 19:29:00,0.0,0.0,30.06,SW,225,1.6,2.5,0,0.00,,---,0.00,VWS V14.01,2013-12-04 17:29:00,
2013-12-04 19:32:00,0.0,0.0,30.06,SSW,202,2.9,2.9,0,0.00,,---,0.00,VWS V14.01,2013-12-04 17:32:00,
2013-12-04 19:33:00,0.0,0.0,30.06,SW,225,3.4,5.4,0,0.00,,---,0.00,VWS V14.01,2013-12-04 17:33:00,
2013-12-04 19:36:00,0.0,0.0,30.06,WSW,248,1.1,1.1,0,0.00,,---,0.00,VWS V14.01,2013-12-04 17:36:00,
2013-12-04 19:37:00,0.0,0.0,30.06,SSW,202,1.1,2.9,0,0.00,,---,0.00,VWS V14.01,2013-12-04 17:37:00,
2013-12-04 19:39:00,0.0,0.0,30.06,SSW,202,0.0,2.2,0,0.00,,---,0.00,VWS V14.01,2013-12-04 17:39:00,
2013-12-04 19:40:00,0.0,0.0,30.06,SW,225,2.9,4.3,0,0.00,,---,0.00,VWS V14.01,2013-12-04 17:40:00,
2013-12-04 19:41:00,0.0,0.0,30.06,WSW,248,4.0,4.0,0,0.00,,---,0.00,VWS V14.01,2013-12-04 17:41:00,
2013-12-04 19:44:00,0.0,0.0,30.06,SSW,202,2.0,2.9,0,0.00,,---,0.00,VWS V14.01,2013-12-04 17:44:00,
2013-12-04 19:45:00,0.0,0.0,30.06,SSW,202,2.9,3.4,0,0.00,,---,0.00,VWS V14.01,2013-12-04 17:45:00,
2013-12-04 19:47:00,0.0,0.0,30.06,SSW,202,2.9,2.9,0,0.00,,---,0.00,VWS V14.01,2013-12-04 17:47:00,
2013-12-04 19:49:00,0.0,0.0,30.06,WSW,248,0.0,4.9,0,0.00,,---,0.00,VWS V14.01,2013-12-04 17:49:00,
2013-12-04 19:51:00,0.0,0.0,30.06,WSW,248,0.0,2.9,0,0.00,,---,0.00,VWS V14.01,2013-12-04 17:51:00,
2013-12-04 19:52:00,0.0,0.0,30.06,SW,225,3.6,3.6,0,0.00,,---,0.00,VWS V14.01,2013-12-04 17:52:00,
2013-12-04 19:53:00,0.0,0.0,30.06,WSW,248,1.1,3.6,0,0.00,,---,0.00,VWS V14.01,2013-12-04 17:53:00,
2013-12-04 19:55:00,0.0,0.0,30.06,WSW,248,2.9,4.0,0,0.00,,---,0.00,VWS V14.01,2013-12-04 17:55:00,
2013-12-04 19:56:00,0.0,0.0,30.06,WSW,248,2.7,2.9,0,0.00,,---,0.00,VWS V14.01,2013-12-04 17:56:00,
2013-12-04 19:57:00,0.0,0.0,30.06,WSW,248,0.0,2.7,0,0.00,,---,0.00,VWS V14.01,2013-12-04 17:57:00,
2013-12-04 19:58:00,0.0,0.0,30.06,WNW,292,0.9,2.5,0,0.00,,---,0.00,VWS V14.01,2013-12-04 17:58:00,
2013-12-04 20:01:00,0.0,0.0,30.06,WSW,248,0.0,2.9,0,0.00,,---,0.00,VWS V14.01,2013-12-04 18:01:00,
2013-12-04 20:03:00,0.0,0.0,30.06,SW,225,0.9,4.0,0,0.00,,---,0.00,VWS V14.01,2013-12-04 18:03:00,
2013-12-04 20:06:00,0.0,0.0,30.06,SSW,202,2.0,4.9,0,0.00,,---,0.00,VWS V14.01,2013-12-04 18:06:00,
2013-12-04 20:07:00,0.0,0.0,30.06,WSW,248,3.4,3.4,0,0.00,,---,0.00,VWS V14.01,2013-12-04 18:07:00,
2013-12-04 20:08:00,0.0,0.0,30.06,WSW,248,2.7,3.4,0,0.00,,---,0.00,VWS V14.01,2013-12-04 18:08:00,
2013-12-04 20:10:00,0.0,0.0,30.06,SSW,202,2.7,3.1,0,0.00,,---,0.00,VWS V14.01,2013-12-04 18:10:00,
2013-12-04 20:11:00,0.0,0.0,30.06,SW,225,3.1,3.1,0,0.00,,---,0.00,VWS V14.01,2013-12-04 18:11:00,
2013-12-04 20:14:00,0.0,0.0,30.06,SW,225,0.9,3.1,0,0.00,,---,0.00,VWS V14.01,2013-12-04 18:14:00,
2013-12-04 20:15:00,0.0,0.0,30.06,SSW,202,5.4,5.4,0,0.00,,---,0.00,VWS V14.01,2013-12-04 18:15:00,
2013-12-04 20:18:00,0.0,0.0,30.06,WSW,248,3.8,3.8,0,0.00,,---,0.00,VWS V14.01,2013-12-04 18:18:00,
2013-12-04 20:19:00,0.0,0.0,30.09,WSW,248,2.5,4.3,0,0.00,,---,0.00,VWS V14.01,2013-12-04 18:19:00,
2013-12-04 20:21:00,0.0,0.0,30.09,SW,225,1.6,1.6,0,0.00,,---,0.00,VWS V14.01,2013-12-04 18:21:00,
2013-12-04 20:22:00,0.0,0.0,30.09,WSW,248,1.6,2.9,0,0.00,,---,0.00,VWS V14.01,2013-12-04 18:22:00,
2013-12-04 20:23:00,0.0,0.0,30.09,WSW,248,0.9,1.6,0,0.00,,---,0.00,VWS V14.01,2013-12-04 18:23:00,
2013-12-04 20:25:00,0.0,0.0,30.09,WSW,248,2.7,4.0,0,0.00,,---,0.00,VWS V14.01,2013-12-04 18:25:00,
2013-12-04 20:26:00,0.0,0.0,30.09,SW,225,2.7,2.7,0,0.00,,---,0.00,VWS V14.01,2013-12-04 18:26:00,
2013-12-04 20:29:00,0.0,0.0,30.09,SSW,202,1.3,2.9,0,0.00,,---,0.00,VWS V14.01,2013-12-04 18:29:00,
2013-12-04 20:32:00,0.0,0.0,30.09,SSW,202,2.7,2.7,0,0.00,,---,0.00,VWS V14.01,2013-12-04 18:32:00,
2013-12-04 20:33:00,0.0,0.0,30.09,SSW,202,2.5,2.5,0,0.00,,---,0.00,VWS V14.01,2013-12-04 18:33:00,
2013-12-04 20:35:00,0.0,0.0,30.09,SSW,202,1.1,1.1,0,0.00,,---,0.00,VWS V14.01,2013-12-04 18:35:00,
2013-12-04 20:38:00,0.0,0.0,30.09,SW,225,2.7,3.1,0,0.00,,---,0.00,VWS V14.01,2013-12-04 18:38:00,
2013-12-04 20:39:00,0.0,0.0,30.09,SW,225,0.9,4.3,0,0.00,,---,0.00,VWS V14.01,2013-12-04 18:39:00,
2013-12-04 20:42:00,0.0,0.0,30.09,SW,225,1.3,4.0,0,0.00,,---,0.00,VWS V14.01,2013-12-04 18:42:00,
2013-12-04 20:44:00,0.0,0.0,30.09,SW,225,0.0,3.8,0,0.00,,---,0.00,VWS V14.01,2013-12-04 18:44:00,
2013-12-04 20:45:00,0.0,0.0,30.09,WSW,248,3.4,3.4,0,0.00,,---,0.00,VWS V14.01,2013-12-04 18:45:00,
2013-12-04 20:46:00,0.0,0.0,30.09,SW,225,2.5,3.4,0,0.00,,---,0.00,VWS V14.01,2013-12-04 18:46:00,
2013-12-04 20:49:00,0.0,0.0,30.09,SW,225,1.3,2.5,0,0.00,,---,0.00,VWS V14.01,2013-12-04 18:49:00,
2013-12-04 20:51:00,0.0,0.0,30.09,SSW,202,2.2,2.5,0,0.00,,---,0.00,VWS V14.01,2013-12-04 18:51:00,
2013-12-04 20:53:00,0.0,0.0,30.09,SW,225,4.0,4.0,0,0.00,,---,0.00,VWS V14.01,2013-12-04 18:53:00,
2013-12-04 20:54:00,0.0,0.0,30.09,SW,225,4.0,4.0,0,0.00,,---,0.00,VWS V14.01,2013-12-04 18:54:00,
2013-12-04 21:00:00,0.0,0.0,30.09,WSW,248,0.9,2.5,0,0.00,,---,0.00,VWS V14.01,2013-12-04 19:00:00,
2013-12-04 21:01:00,0.0,0.0,30.09,SW,225,0.9,0.9,0,0.00,,---,0.00,VWS V14.01,2013-12-04 19:01:00,
2013-12-04 21:03:00,0.0,0.0,30.12,WSW,248,1.6,2.7,0,0.00,,---,0.00,VWS V14.01,2013-12-04 19:03:00,
2013-12-04 21:04:00,0.0,0.0,30.12,WSW,248,0.0,2.0,0,0.00,,---,0.00,VWS V14.01,2013-12-04 19:04:00,
2013-12-04 21:06:00,0.0,0.0,30.12,WSW,248,1.1,2.2,0,0.00,,---,0.00,VWS V14.01,2013-12-04 19:06:00,
2013-12-04 21:07:00,0.0,0.0,30.12,WSW,248,1.6,2.7,0,0.00,,---,0.00,VWS V14.01,2013-12-04 19:07:00,
2013-12-04 21:09:00,0.0,0.0,30.12,SSW,202,1.1,1.6,0,0.00,,---,0.00,VWS V14.01,2013-12-04 19:09:00,
2013-12-04 21:11:00,0.0,0.0,30.12,SW,225,2.5,2.5,0,0.00,,---,0.00,VWS V14.01,2013-12-04 19:11:00,
2013-12-04 21:12:00,0.0,0.0,30.12,SW,225,2.2,3.6,0,0.00,,---,0.00,VWS V14.01,2013-12-04 19:12:00,
2013-12-04 21:13:00,0.0,0.0,30.12,SSW,202,2.2,2.9,0,0.00,,---,0.00,VWS V14.01,2013-12-04 19:13:00,
2013-12-04 21:16:00,0.0,0.0,30.12,WSW,248,0.9,2.9,0,0.00,,---,0.00,VWS V14.01,2013-12-04 19:16:00,
2013-12-04 21:17:00,0.0,0.0,30.12,WSW,248,0.0,3.6,0,0.00,,---,0.00,VWS V14.01,2013-12-04 19:17:00,
2013-12-04 21:18:00,0.0,0.0,30.12,SSW,202,0.0,2.2,0,0.00,,---,0.00,VWS V14.01,2013-12-04 19:18:00,
2013-12-04 21:21:00,0.0,0.0,30.12,WSW,248,2.5,2.5,0,0.00,,---,0.00,VWS V14.01,2013-12-04 19:21:00,
2013-12-04 21:23:00,0.0,0.0,30.12,SW,225,1.1,1.1,0,0.00,,---,0.00,VWS V14.01,2013-12-04 19:23:00,
2013-12-04 21:28:00,0.0,0.0,30.12,SSW,202,0.0,2.2,0,0.00,,---,0.00,VWS V14.01,2013-12-04 19:28:00,
2013-12-04 21:30:00,0.0,0.0,30.12,SW,225,1.1,3.8,0,0.00,,---,0.00,VWS V14.01,2013-12-04 19:30:00,
2013-12-04 21:31:00,0.0,0.0,30.12,SW,225,0.0,1.6,0,0.00,,---,0.00,VWS V14.01,2013-12-04 19:31:00,
2013-12-04 21:32:00,0.0,0.0,30.12,SSW,202,3.4,3.4,0,0.00,,---,0.00,VWS V14.01,2013-12-04 19:32:00,
2013-12-04 21:36:00,0.0,0.0,30.12,SSW,202,0.9,2.5,0,0.00,,---,0.00,VWS V14.01,2013-12-04 19:36:00,
2013-12-04 21:37:00,0.0,0.0,30.12,SSW,202,3.6,5.8,0,0.00,,---,0.00,VWS V14.01,2013-12-04 19:37:00,
2013-12-04 21:41:00,0.0,0.0,30.12,SSW,202,1.6,2.0,0,0.00,,---,0.00,VWS V14.01,2013-12-04 19:41:00,
2013-12-04 21:42:00,0.0,0.0,30.12,SSW,202,1.6,1.6,0,0.00,,---,0.00,VWS V14.01,2013-12-04 19:42:00,
2013-12-04 21:43:00,0.0,0.0,30.12,SSW,202,1.1,2.7,0,0.00,,---,0.00,VWS V14.01,2013-12-04 19:43:00,
2013-12-04 21:44:00,0.0,0.0,30.12,SSW,202,2.0,2.7,0,0.00,,---,0.00,VWS V14.01,2013-12-04 19:44:00,
2013-12-04 21:46:00,0.0,0.0,30.12,South,180,2.5,2.5,0,0.00,,---,0.00,VWS V14.01,2013-12-04 19:46:00,
2013-12-04 21:49:00,0.0,0.0,30.12,WSW,248,0.9,2.7,0,0.00,,---,0.00,VWS V14.01,2013-12-04 19:49:00,
2013-12-04 21:52:00,0.0,0.0,30.12,SW,225,2.0,2.5,0,0.00,,---,0.00,VWS V14.01,2013-12-04 19:52:00,
2013-12-04 21:54:00,0.0,0.0,30.12,WSW,248,0.9,2.0,0,0.00,,---,0.00,VWS V14.01,2013-12-04 19:54:00,
2013-12-04 21:55:00,0.0,0.0,30.12,SSW,202,1.6,2.2,0,0.00,,---,0.00,VWS V14.01,2013-12-04 19:55:00,
2013-12-04 21:56:00,0.0,0.0,30.12,SW,225,2.2,2.2,0,0.00,,---,0.00,VWS V14.01,2013-12-04 19:56:00,
2013-12-04 21:57:00,0.0,0.0,30.12,SW,225,2.7,2.7,0,0.00,,---,0.00,VWS V14.01,2013-12-04 19:57:00,
2013-12-04 21:58:00,0.0,0.0,30.12,West,270,0.0,2.7,0,0.00,,---,0.00,VWS V14.01,2013-12-04 19:58:00,
2013-12-04 22:00:00,0.0,0.0,30.12,SW,225,3.1,3.1,0,0.00,,---,0.00,VWS V14.01,2013-12-04 20:00:00,
2013-12-04 22:03:00,0.0,0.0,30.12,SSW,202,2.0,3.1,0,0.00,,---,0.00,VWS V14.01,2013-12-04 20:03:00,
2013-12-04 22:05:00,0.0,0.0,30.12,SSW,202,3.4,3.4,0,0.00,,---,0.00,VWS V14.01,2013-12-04 20:05:00,
2013-12-04 22:06:00,0.0,0.0,30.12,SW,225,3.4,3.4,0,0.00,,---,0.00,VWS V14.01,2013-12-04 20:06:00,
2013-12-04 22:11:00,0.0,0.0,30.12,WSW,248,0.0,2.0,0,0.00,,---,0.00,VWS V14.01,2013-12-04 20:11:00,
2013-12-04 22:12:00,0.0,0.0,30.12,SSE,158,0.0,1.6,0,0.00,,---,0.00,VWS V14.01,2013-12-04 20:12:00,
2013-12-04 22:13:00,0.0,0.0,30.12,SSW,202,2.7,3.1,0,0.00,,---,0.00,VWS V14.01,2013-12-04 20:13:00,
2013-12-04 22:14:00,0.0,0.0,30.12,SSW,202,3.6,3.8,0,0.00,,---,0.00,VWS V14.01,2013-12-04 20:14:00,
2013-12-04 22:15:00,0.0,0.0,30.12,SW,225,2.5,3.6,0,0.00,,---,0.00,VWS V14.01,2013-12-04 20:15:00,
2013-12-04 22:17:00,0.0,0.0,30.12,SSW,202,3.8,4.0,0,0.00,,---,0.00,VWS V14.01,2013-12-04 20:17:00,
2013-12-04 22:18:00,0.0,0.0,30.12,SSW,202,3.1,3.8,0,0.00,,---,0.00,VWS V14.01,2013-12-04 20:18:00,
2013-12-04 22:19:00,0.0,0.0,30.12,SW,225,2.2,3.1,0,0.00,,---,0.00,VWS V14.01,2013-12-04 20:19:00,
2013-12-04 22:21:00,0.0,0.0,30.12,SW,225,2.5,2.7,0,0.00,,---,0.00,VWS V14.01,2013-12-04 20:21:00,
2013-12-04 22:24:00,0.0,0.0,30.12,SSW,202,3.6,3.6,0,0.00,,---,0.00,VWS V14.01,2013-12-04 20:24:00,
2013-12-04 22:25:00,0.0,0.0,30.12,SSW,202,0.0,3.6,0,0.00,,---,0.00,VWS V14.01,2013-12-04 20:25:00,
2013-12-04 22:26:00,0.0,0.0,30.12,South,180,1.3,2.7,0,0.00,,---,0.00,VWS V14.01,2013-12-04 20:26:00,
2013-12-04 22:28:00,0.0,0.0,30.12,WSW,248,2.2,2.2,0,0.00,,---,0.00,VWS V14.01,2013-12-04 20:28:00,
2013-12-04 22:30:00,0.0,0.0,30.12,SW,225,0.0,1.3,0,0.00,,---,0.00,VWS V14.01,2013-12-04 20:30:00,
2013-12-04 22:32:00,0.0,0.0,30.12,WSW,248,0.0,1.3,0,0.00,,---,0.00,VWS V14.01,2013-12-04 20:32:00,
2013-12-04 22:34:00,0.0,0.0,30.12,WSW,248,1.3,1.3,0,0.00,,---,0.00,VWS V14.01,2013-12-04 20:34:00,
2013-12-04 22:35:00,0.0,0.0,30.12,WSW,248,0.9,1.6,0,0.00,,---,0.00,VWS V14.01,2013-12-04 20:35:00,
2013-12-04 22:36:00,0.0,0.0,30.12,SSW,202,0.0,3.6,0,0.00,,---,0.00,VWS V14.01,2013-12-04 20:36:00,
2013-12-04 22:38:00,0.0,0.0,30.12,WSW,248,1.3,4.7,0,0.00,,---,0.00,VWS V14.01,2013-12-04 20:38:00,
2013-12-04 22:39:00,0.0,0.0,30.12,WSW,248,1.1,2.9,0,0.00,,---,0.00,VWS V14.01,2013-12-04 20:39:00,
2013-12-04 22:41:00,0.0,0.0,30.12,WSW,248,0.9,2.0,0,0.00,,---,0.00,VWS V14.01,2013-12-04 20:41:00,
2013-12-04 22:43:00,0.0,0.0,30.12,WSW,248,0.0,0.9,0,0.00,,---,0.00,VWS V14.01,2013-12-04 20:43:00,
2013-12-04 22:44:00,0.0,0.0,30.12,SSW,202,0.0,0.9,0,0.00,,---,0.00,VWS V14.01,2013-12-04 20:44:00,
2013-12-04 22:46:00,0.0,0.0,30.12,SW,225,0.0,0.0,0,0.00,,---,0.00,VWS V14.01,2013-12-04 20:46:00,
2013-12-04 22:47:00,0.0,0.0,30.12,SW,225,0.0,0.0,0,0.00,,---,0.00,VWS V14.01,2013-12-04 20:47:00,
2013-12-04 22:48:00,0.0,0.0,30.12,SW,225,0.0,0.0,0,0.00,,---,0.00,VWS V14.01,2013-12-04 20:48:00,
2013-12-04 22:49:00,0.0,0.0,30.12,SSW,202,1.1,1.6,0,0.00,,---,0.00,VWS V14.01,2013-12-04 20:49:00,
2013-12-04 22:51:00,0.0,0.0,30.12,SSW,202,0.0,2.2,0,0.00,,---,0.00,VWS V14.01,2013-12-04 20:51:00,
2013-12-04 22:52:00,0.0,0.0,30.12,SW,225,2.0,2.0,0,0.00,,---,0.00,VWS V14.01,2013-12-04 20:52:00,
2013-12-04 22:54:00,0.0,0.0,30.12,SW,225,0.0,2.0,0,0.00,,---,0.00,VWS V14.01,2013-12-04 20:54:00,
2013-12-04 22:56:00,0.0,0.0,30.12,SW,225,0.0,2.5,0,0.00,,---,0.00,VWS V14.01,2013-12-04 20:56:00,
2013-12-04 22:59:00,0.0,0.0,30.12,SSW,202,0.0,0.9,0,0.00,,---,0.00,VWS V14.01,2013-12-04 20:59:00,
2013-12-04 23:00:00,0.0,0.0,30.12,WSW,248,0.0,1.3,0,0.00,,---,0.00,VWS V14.01,2013-12-04 21:00:00,
2013-12-04 23:01:00,0.0,0.0,30.12,SW,225,1.1,1.1,0,0.00,,---,0.00,VWS V14.01,2013-12-04 21:01:00,
2013-12-04 23:04:00,0.0,0.0,30.12,SSW,202,0.0,0.9,0,0.00,,---,0.00,VWS V14.01,2013-12-04 21:04:00,
2013-12-04 23:06:00,0.0,0.0,30.12,WSW,248,0.0,0.9,0,0.00,,---,0.00,VWS V14.01,2013-12-04 21:06:00,
2013-12-04 23:07:00,0.0,0.0,30.12,WSW,248,0.0,0.0,0,0.00,,---,0.00,VWS V14.01,2013-12-04 21:07:00,
2013-12-04 23:09:00,0.0,0.0,30.12,WSW,248,0.0,0.0,0,0.00,,---,0.00,VWS V14.01,2013-12-04 21:09:00,
2013-12-04 23:10:00,0.0,0.0,30.12,WSW,248,0.0,0.0,0,0.00,,---,0.00,VWS V14.01,2013-12-04 21:10:00,
2013-12-04 23:12:00,0.0,0.0,30.12,WSW,248,0.0,0.0,0,0.00,,---,0.00,VWS V14.01,2013-12-04 21:12:00,
2013-12-04 23:16:00,0.0,0.0,30.12,WSW,248,0.0,0.0,0,0.00,,---,0.00,VWS V14.01,2013-12-04 21:16:00,
2013-12-04 23:17:00,0.0,0.0,30.12,SW,225,0.0,0.0,0,0.00,,---,0.00,VWS V14.01,2013-12-04 21:17:00,
2013-12-04 23:19:00,0.0,0.0,30.12,WSW,248,0.0,0.0,0,0.00,,---,0.00,VWS V14.01,2013-12-04 21:19:00,
2013-12-04 23:21:00,0.0,0.0,30.12,SW,225,0.0,2.0,0,0.00,,---,0.00,VWS V14.01,2013-12-04 21:21:00,
2013-12-04 23:22:00,0.0,0.0,30.12,WSW,248,0.0,0.0,0,0.00,,---,0.00,VWS V14.01,2013-12-04 21:22:00,
2013-12-04 23:23:00,0.0,0.0,30.12,South,180,0.0,0.0,0,0.00,,---,0.00,VWS V14.01,2013-12-04 21:23:00,
2013-12-04 23:26:00,0.0,0.0,30.12,WSW,248,0.0,0.0,0,0.00,,---,0.00,VWS V14.01,2013-12-04 21:26:00,
2013-12-04 23:28:00,0.0,0.0,30.12,WSW,248,0.0,0.0,0,0.00,,---,0.00,VWS V14.01,2013-12-04 21:28:00,
2013-12-04 23:29:00,0.0,0.0,30.12,West,270,0.0,0.0,0,0.00,,---,0.00,VWS V14.01,2013-12-04 21:29:00,
2013-12-04 23:30:00,0.0,0.0,30.12,WSW,248,0.0,0.0,0,0.00,,---,0.00,VWS V14.01,2013-12-04 21:30:00,
2013-12-04 23:33:00,0.0,0.0,30.12,WSW,248,0.0,0.9,0,0.00,,---,0.00,VWS V14.01,2013-12-04 21:33:00,
2013-12-04 23:35:00,0.0,0.0,30.12,SSW,202,0.0,0.0,0,0.00,,---,0.00,VWS V14.01,2013-12-04 21:35:00,
2013-12-04 23:36:00,0.0,0.0,30.12,WSW,248,0.0,0.0,0,0.00,,---,0.00,VWS V14.01,2013-12-04 21:36:00,
2013-12-04 23:39:00,0.0,0.0,30.12,WSW,248,0.0,0.0,0,0.00,,---,0.00,VWS V14.01,2013-12-04 21:39:00,
2013-12-04 23:40:00,0.0,0.0,30.12,WSW,248,0.0,0.0,0,0.00,,---,0.00,VWS V14.01,2013-12-04 21:40:00,
2013-12-04 23:42:00,0.0,0.0,30.12,WSW,248,0.0,0.9,0,0.00,,---,0.00,VWS V14.01,2013-12-04 21:42:00,
2013-12-04 23:43:00,0.0,0.0,30.12,WSW,248,0.0,0.9,0,0.00,,---,0.00,VWS V14.01,2013-12-04 21:43:00,
2013-12-04 23:44:00,0.0,0.0,30.12,WSW,248,0.9,1.3,0,0.00,,---,0.00,VWS V14.01,2013-12-04 21:44:00,
2013-12-04 23:45:00,0.0,0.0,30.12,South,180,0.0,0.9,0,0.00,,---,0.00,VWS V14.01,2013-12-04 21:45:00,
2013-12-04 23:49:00,0.0,0.0,30.12,WSW,248,0.0,0.9,0,0.00,,---,0.00,VWS V14.01,2013-12-04 21:49:00,
2013-12-04 23:50:00,0.0,0.0,30.12,NNW,338,1.1,1.1,0,0.00,,---,0.00,VWS V14.01,2013-12-04 21:50:00,
2013-12-04 23:51:00,0.0,0.0,30.12,West,270,0.0,1.3,0,0.00,,---,0.00,VWS V14.01,2013-12-04 21:51:00,
2013-12-04 23:54:00,0.0,0.0,30.12,WSW,248,0.9,0.9,0,0.00,,---,0.00,VWS V14.01,2013-12-04 21:54:00,
2013-12-04 23:57:00,0.0,0.0,30.12,SW,225,0.0,0.0,0,0.00,,---,0.00,VWS V14.01,2013-12-04 21:57:00,
2013-12-04 23:58:00,0.0,0.0,30.12,SW,225,0.0,0.0,0,0.00,,---,0.00,VWS V14.01,2013-12-04 21:58:00,
2013-12-04 23:59:00,0.0,0.0,30.12,West,270,0.0,0.9,0,0.00,,---,0.00,VWS V14.01,2013-12-04 21:59:00,